GFSGL_850_spd_000.txt.gz
Wind_Speed
17 21 24 26 30 30 32 32 29 19 15 18 22 25 16 15 9 11 14 16 19 20 24 23 21 22 27 31 33 31 30 30 34 37 34 31 23 17 20 15 3 9 10
20 22 23 26 29 31 32 29 24 16 15 16 18 23 19 9 9 13 17 18 22 23 23 22 26 31 34 32 28 28 28 28 28 31 30 29 22 17 18 12 17 6 12
20 21 23 27 30 31 31 28 22 13 13 20 21 14 6 8 13 15 19 22 24 25 26 29 33 33 31 28 27 28 30 25 24 21 25 24 25 24 23 23 17 14 16
19 20 22 26 30 32 30 26 21 17 18 13 11 9 9 13 15 19 23 24 24 25 29 32 32 31 30 28 27 28 25 27 26 27 25 23 21 21 23 22 21 23 17
19 20 22 27 31 30 28 26 20 16 13 12 10 10 13 17 17 21 23 24 26 31 32 31 30 30 26 26 27 28 30 28 27 25 24 24 19 16 21 20 22 23 20
21 22 22 28 28 28 29 23 14 10 12 12 11 13 18 19 19 20 24 27 30 33 31 31 31 29 28 25 30 25 22 24 26 25 24 23 23 22 14 16 13 15 17
23 20 24 27 26 29 24 18 13 11 13 15 16 19 20 15 20 24 25 29 30 28 28 29 28 26 24 23 20 18 21 20 17 19 21 23 22 19 20 18 15 16 18
21 22 25 23 27 28 22 16 15 14 17 17 17 14 12 20 23 24 28 27 26 26 24 21 22 21 19 17 23 23 20 19 19 17 18 18 17 20 21 22 23 22 23
22 24 23 22 27 25 20 16 16 17 18 16 13 13 22 18 22 26 25 24 24 23 20 19 19 19 18 19 22 23 20 18 19 20 20 21 22 23 16 16 20 22 23
21 22 22 23 25 23 17 15 13 16 15 15 15 15 15 19 22 22 21 22 23 22 19 19 17 18 18 18 19 21 19 20 18 17 16 16 18 22 26 24 22 14 15
22 23 23 23 24 20 17 15 16 17 14 12 13 13 17 20 20 19 19 20 20 22 20 20 18 18 19 17 16 16 18 20 17 14 13 12 12 12 15 22 27 26 23
25 27 25 24 22 19 18 17 17 14 13 10 12 16 17 17 17 17 18 18 18 19 19 19 18 19 20 19 15 14 16 16 15 14 13 13 12 11 11 11 14 21 24
27 26 26 22 19 18 16 16 15 13 11 13 18 18 15 14 15 17 16 16 18 19 18 17 18 20 20 18 14 14 15 15 13 12 12 11 10 10 8 9 11 13 14
27 24 23 18 15 17 13 14 12 10 13 18 18 15 12 12 13 16 16 16 18 18 19 16 15 17 18 17 16 13 13 13 12 12 12 11 10 8 6 6 6 6 9
25 23 18 16 17 20 14 10 10 12 17 18 14 12 11 11 12 14 15 15 17 18 17 16 15 16 18 19 18 16 14 12 9 10 11 11 9 8 7 5 2 4 8
25 20 18 16 16 19 12 12 11 14 19 15 12 12 11 11 11 12 12 14 16 16 16 16 17 18 19 19 20 19 17 13 9 10 11 10 10 10 9 7 6 4 2
20 18 19 12 11 12 12 13 15 14 17 15 14 12 11 10 10 10 11 13 15 16 15 15 16 17 18 18 18 18 19 18 12 9 9 10 9 9 9 8 6 4 2
18 17 15 13 11 11 13 16 16 15 17 16 14 12 11 10 10 10 11 13 14 15 15 14 15 16 16 17 17 18 17 15 14 9 8 9 9 9 8 7 8 7 6
18 17 16 14 16 17 15 15 17 16 18 17 14 14 12 10 10 10 10 12 13 14 13 13 14 15 15 15 15 16 17 16 15 11 9 9 8 7 7 7 7 8 7
19 19 16 16 16 13 13 15 18 20 18 16 16 15 11 12 11 10 11 13 14 14 14 13 14 14 15 14 14 14 14 14 13 12 10 9 9 9 8 8 8 8 9
22 21 18 19 18 16 17 18 18 18 16 17 17 15 15 15 13 12 13 13 14 14 13 13 13 13 14 14 14 14 13 13 13 13 12 11 10 9 8 9 9 9 9
19 21 22 23 22 21 21 20 18 18 20 20 19 16 15 17 16 16 17 17 15 15 14 14 13 13 14 13 13 13 12 12 12 12 11 11 11 10 10 9 8 9 8
21 22 23 22 22 23 21 19 17 18 20 20 20 20 19 20 20 19 18 16 17 16 15 16 15 14 14 14 13 13 12 12 11 11 11 10 10 10 10 10 9 8 8
23 22 22 21 20 21 22 21 20 20 20 20 22 23 23 23 21 20 20 20 19 18 17 16 16 14 13 13 14 14 12 11 11 11 11 10 10 10 9 9 8 8 8
22 23 21 20 20 20 23 25 26 27 28 28 27 25 27 26 26 25 24 22 22 21 18 16 16 15 14 14 14 14 12 11 10 10 10 10 10 10 9 8 7 7 7
22 22 21 20 19 21 23 25 28 28 28 30 30 30 28 29 29 28 28 27 24 20 18 17 17 17 16 14 14 14 12 10 10 10 9 9 9 9 8 8 7 7 8

GFSGL_850_spd_003.txt.gz
Wind_Speed
11 16 19 23 26 26 28 27 25 21 15 12 12 15 19 21 11 10 9 12 15 19 21 20 20 20 19 21 20 20 21 22 28 36 29 27 26 24 22 19 18 14 9
13 17 19 22 22 26 27 26 23 20 13 10 13 19 22 17 8 11 11 13 19 20 20 20 18 20 21 22 21 22 22 23 25 32 28 24 21 21 22 19 18 15 12
14 16 18 18 22 27 28 26 24 22 18 15 20 18 11 8 11 14 14 17 23 20 21 25 27 26 24 23 24 24 21 21 21 23 30 26 24 22 21 21 19 16 16
15 17 17 18 23 28 27 27 25 21 18 14 13 12 12 11 14 15 16 22 24 23 26 30 32 27 22 22 22 21 21 21 23 25 25 23 21 19 17 18 19 13 13
16 18 19 19 24 28 26 27 23 17 13 12 13 11 11 14 16 19 19 23 25 28 31 31 28 28 26 22 21 21 23 24 22 22 22 21 19 17 15 11 15 17 14
18 21 20 21 26 26 27 26 20 14 12 13 15 16 17 18 21 15 22 24 28 32 30 29 28 26 19 22 21 19 16 19 20 21 22 20 20 19 17 16 13 11 14
21 22 21 23 26 24 26 24 19 16 15 17 18 16 19 15 14 23 22 27 30 28 27 26 22 19 17 16 17 19 21 20 19 21 22 20 20 18 17 14 13 12 12
22 21 21 24 24 24 24 21 18 16 17 18 20 17 17 17 22 21 26 27 25 24 24 21 19 16 15 17 19 20 18 17 16 17 18 18 18 17 16 16 16 15 16
23 23 23 23 23 22 23 19 17 15 15 16 16 17 15 17 19 24 25 23 22 22 20 17 18 16 16 17 19 19 18 17 15 18 17 17 21 21 20 19 18 14 15
24 23 22 22 22 22 23 20 17 16 18 18 16 15 16 16 21 24 22 21 20 20 18 18 18 17 16 18 17 17 17 18 20 18 14 14 16 18 19 19 20 17 13
22 21 23 24 25 25 25 20 18 17 17 16 14 15 16 20 22 21 19 18 18 18 18 18 16 18 18 18 17 13 15 21 19 16 14 13 12 13 12 11 16 20 20
21 24 27 28 26 27 23 19 17 16 16 14 13 14 19 20 20 18 17 16 16 17 17 17 16 18 19 19 18 17 16 17 15 13 12 11 11 11 11 11 12 13 19
24 28 29 27 26 21 17 17 14 15 13 12 14 20 20 19 17 16 16 15 14 15 16 17 16 17 19 19 19 18 17 16 12 12 13 12 12 12 10 9 8 10 13
28 29 28 26 20 14 13 13 14 13 10 12 18 19 17 15 15 15 16 15 15 15 16 16 16 16 16 17 18 18 16 15 12 12 13 12 11 9 8 6 5 6 8
24 25 24 18 16 14 15 17 14 10 11 14 18 15 14 15 15 14 15 15 15 16 16 16 16 16 17 17 17 18 18 15 10 9 11 12 12 11 10 9 5 3 7
21 21 18 18 16 13 15 16 14 13 15 15 17 15 14 15 15 14 14 13 14 16 16 16 16 16 17 18 18 18 18 17 13 9 10 11 11 12 12 10 7 7 6
18 17 18 17 14 13 12 12 14 18 18 15 17 17 15 13 14 14 14 13 14 16 16 15 16 16 17 17 17 17 17 17 16 11 10 10 10 10 10 10 9 7 5
15 14 16 16 16 13 13 13 15 19 20 19 17 16 13 13 14 14 14 15 14 15 16 15 15 16 16 17 17 16 15 15 15 13 10 10 10 9 9 9 9 8 7
14 15 15 16 16 16 17 17 18 16 18 21 21 18 15 15 15 15 15 16 15 15 16 16 16 16 16 16 17 16 15 14 14 13 12 10 10 9 8 8 7 8 8
17 17 19 19 17 17 19 19 18 18 19 20 20 17 16 14 15 16 16 16 16 16 16 16 15 15 15 16 16 16 15 13 12 12 11 10 10 9 9 8 8 8 8
19 20 18 18 20 22 23 24 22 22 22 22 20 18 18 20 20 19 19 20 19 18 17 17 16 15 15 15 15 15 14 13 12 11 11 10 10 9 9 7 7 8 7
18 21 20 21 23 25 27 28 29 26 24 23 23 20 18 22 22 21 21 22 21 21 21 20 18 17 16 15 15 15 14 13 11 11 10 10 10 9 9 8 7 7 6
24 26 25 23 23 23 25 25 28 29 25 23 22 22 21 23 26 26 24 23 22 22 21 21 20 18 17 15 14 14 14 13 11 10 9 9 9 9 8 8 7 6 6
25 26 25 24 23 22 22 24 24 28 27 26 27 29 29 26 26 28 28 26 24 23 23 22 21 20 18 16 15 14 14 13 11 10 9 9 9 9 8 7 6 6 6
24 25 24 24 23 22 21 22 22 23 26 28 30 31 32 33 34 32 29 30 29 28 26 24 23 21 19 17 16 15 14 13 11 10 9 8 8 8 7 6 6 5 5
27 27 24 23 23 20 19 18 17 17 18 20 22 23 25 25 27 29 33 33 30 30 29 27 25 22 20 18 16 15 14 13 12 10 9 8 8 8 7 7 6 6 6

GFSGL_850_spd_006.txt.gz
Wind_Speed
3 3 6 11 17 20 18 19 19 20 16 13 11 13 14 18 19 16 11 13 13 15 18 20 20 19 20 22 24 25 27 28 34 39 32 29 28 28 24 23 21 20 21
4 4 9 15 18 16 15 17 18 18 16 13 12 15 18 20 16 10 12 14 17 19 20 20 21 22 24 25 25 26 28 28 30 36 31 29 27 27 26 25 22 22 23
4 7 12 14 15 12 15 17 17 16 15 13 13 14 14 12 11 12 14 15 16 17 19 20 23 24 25 24 25 26 26 24 23 29 32 28 27 24 24 22 22 21 22
7 9 10 14 13 14 16 16 17 16 14 12 12 13 12 11 11 12 12 13 14 17 19 21 23 22 22 22 23 23 22 22 22 27 29 26 24 22 21 20 19 18 22
9 9 10 15 14 13 15 17 19 16 13 13 11 11 11 11 15 16 20 14 17 18 19 19 18 20 28 23 18 19 20 21 20 22 25 24 21 20 19 20 19 17 16
11 12 14 15 16 15 15 17 17 15 14 14 15 13 11 10 19 18 14 17 16 18 18 18 17 18 15 20 19 20 18 19 22 22 23 23 23 20 18 16 17 15 16
12 15 18 18 16 15 16 16 17 15 14 15 16 13 13 9 16 16 19 19 20 16 16 16 16 15 18 16 18 20 21 20 21 21 22 22 22 19 18 18 17 15 14
15 18 17 14 15 16 16 16 16 15 15 14 13 12 10 12 16 18 18 22 18 15 15 15 14 15 15 20 18 20 19 19 18 18 19 20 20 20 17 16 17 19 18
17 14 14 14 15 17 17 17 17 16 14 14 13 10 11 11 17 18 21 23 19 17 14 12 15 14 16 18 18 19 19 18 17 19 22 23 20 20 19 18 19 18 18
15 15 14 13 15 17 18 18 18 17 15 12 13 16 16 15 17 20 22 20 17 15 12 12 16 18 20 18 17 17 18 18 21 21 19 16 16 15 15 15 18 19 19
18 16 14 15 17 18 18 18 18 16 14 16 16 16 15 15 19 21 20 18 16 15 13 13 12 18 19 19 19 15 19 20 19 18 16 14 13 12 12 13 13 16 19
16 16 16 18 18 18 17 18 15 12 11 16 15 14 13 19 20 19 16 16 16 16 15 13 17 18 18 19 17 19 19 16 15 15 14 14 13 13 13 13 13 15 15
16 17 18 17 17 16 14 11 12 11 10 10 9 10 13 15 12 14 15 15 15 15 14 15 16 16 17 16 18 18 17 13 13 12 13 14 14 14 12 11 10 11 13
17 18 15 16 19 12 10 10 11 11 11 9 9 12 14 13 12 10 10 10 13 11 14 16 15 15 16 17 15 13 13 14 13 11 12 13 13 13 13 12 8 8 10
17 16 15 15 14 13 9 11 12 12 12 10 10 11 13 12 12 13 13 12 11 12 16 13 12 13 12 12 12 12 12 13 12 11 11 12 13 12 13 12 9 7 8
16 15 12 12 12 11 10 11 13 14 16 18 17 16 17 15 14 14 14 14 15 15 15 11 12 12 13 13 13 13 12 13 14 12 10 11 12 12 13 12 10 9 10
16 15 13 12 11 11 11 11 9 13 15 20 22 21 18 17 14 14 14 15 16 16 12 12 13 12 13 13 12 12 12 13 15 13 10 10 11 10 10 10 10 8 8
16 17 15 12 13 13 12 14 14 16 17 21 21 21 20 19 15 15 15 16 14 15 15 13 13 12 12 12 12 12 12 13 12 13 11 10 10 10 10 9 8 9 8
19 17 15 16 18 18 18 16 16 17 20 18 18 18 19 18 18 17 17 19 16 15 14 14 14 14 13 12 12 11 13 12 12 12 11 10 10 9 8 8 8 9 8
17 18 19 21 22 21 21 18 17 18 17 15 17 16 13 18 20 18 17 19 20 18 17 16 14 14 14 13 13 12 11 10 10 10 10 10 9 9 8 8 8 8 7
16 15 18 18 17 19 20 23 25 25 25 21 20 21 19 17 20 20 19 21 22 21 20 18 17 17 16 15 13 11 11 10 11 11 10 9 9 7 8 7 7 7 7
20 20 19 24 25 24 22 22 25 27 27 30 28 22 22 21 23 23 23 24 24 24 23 21 20 18 17 15 14 14 12 11 12 12 11 9 8 7 7 7 7 6 6
26 26 27 28 28 26 26 25 25 24 25 26 28 29 25 25 26 25 25 26 27 27 25 25 25 24 22 21 18 17 14 11 12 13 11 10 8 6 6 6 6 6 5
26 26 26 28 28 27 25 24 24 24 24 22 23 28 28 28 29 31 32 32 31 29 29 28 27 25 23 23 21 18 15 15 14 13 11 10 9 7 6 6 5 6 5
27 26 27 27 29 28 25 24 23 20 19 18 20 22 23 24 25 26 28 27 28 30 33 31 30 28 25 24 23 19 17 15 14 13 12 10 9 8 7 6 6 5 5
37 33 22 22 23 23 22 21 18 16 16 16 16 18 20 23 25 26 26 27 27 27 28 31 33 29 27 25 24 22 19 16 15 13 12 11 10 8 7 6 6 5 5

GFSGL_850_spd_009.txt.gz
Wind_Speed
7 9 6 5 4 5 6 8 10 12 12 13 13 13 13 16 18 19 19 17 15 14 15 16 18 19 21 22 24 26 28 29 33 38 35 32 30 29 28 28 29 29 26
12 8 8 7 6 7 8 9 11 12 13 13 13 13 15 17 17 16 14 14 16 16 17 18 20 22 23 24 25 26 27 28 31 36 36 32 30 27 28 28 26 24 25
11 10 9 9 8 9 9 10 11 12 13 12 12 14 15 15 14 14 14 15 15 14 15 17 19 22 25 25 23 24 26 27 27 29 34 31 30 27 26 25 24 23 24
14 12 11 11 10 11 11 11 12 13 13 12 12 14 14 13 13 13 14 15 16 19 17 20 22 21 20 20 22 20 20 22 24 25 27 27 26 25 24 25 25 21 22
14 12 11 11 11 12 13 13 13 13 12 12 13 14 12 12 12 13 15 15 14 17 19 20 19 21 27 26 22 18 17 18 20 22 25 26 24 23 23 24 24 23 22
14 12 11 11 12 14 14 14 14 14 13 13 14 15 14 13 16 14 14 15 14 16 19 18 17 17 16 22 18 17 23 20 21 22 24 25 25 23 23 24 22 20 21
13 11 11 11 12 14 14 16 15 15 14 14 14 14 13 14 16 15 15 17 14 17 16 15 15 14 17 15 16 20 19 21 24 25 22 22 24 22 24 23 20 19 18
12 10 11 12 13 15 16 17 17 17 16 15 14 14 12 15 17 19 16 17 14 15 14 13 13 13 15 21 23 18 18 18 18 18 22 24 24 26 26 24 23 22 22
12 12 11 12 14 16 17 17 18 17 17 17 15 13 12 15 20 18 17 18 14 13 12 12 13 13 16 20 22 19 19 18 17 21 24 26 24 19 18 18 19 18 20
12 11 13 13 15 16 17 18 18 18 18 17 15 12 12 14 21 17 16 19 15 12 11 11 14 19 21 21 22 21 18 19 22 22 19 19 17 17 18 16 15 17 18
9 14 12 13 16 17 18 17 18 18 17 14 15 13 11 14 14 17 18 17 14 14 11 10 10 19 19 20 20 19 18 26 21 17 19 16 15 16 14 14 16 17 17
15 11 12 14 15 15 16 17 18 17 14 12 14 11 10 11 16 19 18 14 15 15 14 11 14 17 18 18 18 17 21 17 17 17 16 14 14 16 15 15 15 17 17
18 13 13 14 15 15 16 14 14 13 12 11 11 12 9 11 14 16 17 16 15 13 13 13 16 16 16 16 14 18 19 15 16 16 15 14 15 17 17 19 22 14 13
15 14 15 16 16 21 13 11 14 13 12 12 12 11 10 9 11 14 16 14 14 16 12 15 19 13 15 17 16 13 14 15 16 15 16 15 14 15 16 16 17 18 13
17 16 15 16 14 14 14 13 14 13 14 14 14 13 13 17 11 15 16 14 13 14 18 18 11 12 12 12 12 13 13 13 14 15 13 15 15 14 15 15 16 17 23
15 14 14 14 14 14 15 17 15 15 16 21 21 22 22 20 18 16 15 16 15 16 17 12 12 13 13 12 12 13 13 13 14 13 12 13 14 14 14 14 15 14 17
15 16 16 15 14 16 20 21 20 13 16 18 19 22 24 24 22 18 15 15 16 17 16 12 13 14 14 12 11 12 13 13 16 12 13 12 12 13 13 13 13 13 12
17 16 18 16 16 20 21 22 22 21 20 20 20 20 21 21 20 19 16 16 18 17 16 15 15 14 14 12 12 12 14 14 11 11 10 11 11 11 11 11 12 12 12
17 19 20 20 22 24 23 23 24 23 23 22 20 23 22 19 17 17 18 21 19 19 17 17 16 16 16 15 15 16 15 13 13 11 10 10 10 10 10 9 10 12 11
21 22 23 23 23 23 22 20 22 24 23 23 22 20 16 18 20 21 20 21 20 21 21 20 19 19 18 18 18 16 14 12 12 12 10 10 9 9 9 11 8 9 10
23 25 26 27 27 26 25 27 25 24 26 27 27 27 26 24 24 22 22 22 22 22 23 23 22 23 21 22 21 18 15 13 12 12 10 8 10 7 8 8 10 8 8
29 30 30 31 30 29 31 29 28 28 28 28 29 28 28 31 29 26 23 22 23 25 25 25 25 24 23 22 21 19 17 15 14 11 11 10 9 7 7 7 8 9 8
31 31 32 33 31 31 29 31 31 30 26 25 26 25 25 29 31 28 26 25 26 26 27 27 28 28 26 26 26 25 21 18 15 13 11 10 8 7 8 6 7 7 7
33 32 33 32 31 27 29 31 32 31 28 25 24 23 23 24 26 27 25 25 27 28 27 28 31 30 29 27 27 25 22 19 18 16 12 12 10 8 7 6 6 8 7
34 36 40 35 35 39 26 27 27 25 24 23 21 19 18 18 19 20 20 22 24 26 26 26 27 29 34 31 29 27 23 21 18 17 15 12 11 10 9 7 7 6 6
33 34 35 35 38 27 20 22 22 23 19 15 16 17 18 20 22 24 25 26 25 26 25 25 26 26 27 30 31 28 26 25 21 18 16 14 12 10 8 7 7 6 4

GFSGL_850_spd_012.txt.gz
Wind_Speed
24 15 11 8 10 8 7 9 10 12 11 12 12 13 13 12 14 17 18 19 18 17 12 16 19 15 17 20 23 23 25 26 30 31 31 30 32 41 39 33 32 33 29
20 16 14 14 10 9 8 9 11 13 11 13 14 13 12 14 16 17 15 15 16 15 20 14 14 16 19 21 21 23 23 26 29 32 34 35 36 31 28 29 29 28 28
17 20 16 15 12 10 11 11 12 11 14 13 13 12 13 14 18 12 12 13 15 13 13 18 22 20 23 24 27 28 31 31 26 28 32 30 27 26 29 27 27 26 25
22 18 16 15 12 10 12 14 13 13 14 13 13 13 15 15 13 12 12 12 14 14 17 15 18 19 22 25 29 30 25 23 24 23 26 27 28 28 25 27 28 27 30
21 17 15 15 14 14 12 15 15 15 17 13 14 15 17 19 14 15 15 17 18 15 14 16 18 21 25 25 24 24 24 24 23 22 26 27 27 26 27 26 27 29 28
21 19 15 12 11 10 15 20 17 16 14 15 15 16 17 15 17 20 17 17 15 15 15 19 21 17 18 19 19 19 23 25 25 27 31 31 30 26 25 25 28 28 30
21 18 14 12 10 19 15 15 15 17 18 18 17 16 18 18 21 20 16 16 18 14 17 18 19 12 18 21 22 23 23 18 17 21 26 23 25 25 29 32 33 31 29
18 15 14 11 12 11 15 16 17 18 18 19 19 18 17 19 18 19 18 21 19 15 19 19 15 14 20 21 22 24 23 19 14 18 21 24 25 31 25 22 22 23 25
16 13 11 9 10 18 16 15 17 20 20 20 19 19 17 16 16 20 21 21 18 18 18 15 13 18 20 20 23 23 23 21 15 21 25 20 18 17 16 20 22 21 23
10 9 6 13 15 16 18 18 18 19 19 19 19 19 17 17 19 23 23 20 20 18 15 13 13 17 20 22 22 22 23 22 25 23 18 20 15 15 16 18 19 21 22
9 9 10 10 18 16 19 19 20 20 18 18 23 21 21 22 22 21 18 17 20 17 15 13 10 18 21 21 20 19 19 22 19 21 22 17 16 16 17 15 15 18 22
8 6 8 16 15 16 20 21 17 17 14 17 18 21 19 21 20 18 18 17 17 17 16 14 14 16 17 16 15 15 17 19 19 23 20 18 18 17 16 16 17 21 25
5 9 17 19 20 18 19 20 13 11 12 14 17 20 19 15 18 20 17 18 17 17 14 13 12 17 13 13 14 17 17 20 20 24 21 20 17 16 17 17 18 19 22
12 17 18 19 16 17 16 18 13 12 12 17 19 19 19 16 15 13 17 19 18 18 15 14 18 17 10 13 14 14 17 19 20 20 22 20 17 17 17 16 18 21 21
16 17 16 15 15 15 14 17 23 17 18 15 16 18 20 20 20 19 20 21 20 19 20 20 20 11 12 14 14 12 16 17 18 19 25 18 17 18 16 14 15 19 18
15 15 15 15 17 17 16 15 19 25 21 18 21 26 27 25 24 24 22 18 20 24 24 22 19 11 12 15 14 12 15 16 18 22 16 19 17 18 16 13 15 16 17
16 16 16 16 17 17 17 21 27 27 24 21 20 21 24 27 29 28 25 21 18 19 22 21 17 12 13 16 15 12 15 19 22 18 17 16 15 16 13 12 15 16 16
19 19 19 18 19 19 21 23 24 27 30 29 26 26 25 24 25 25 22 20 22 22 23 21 17 15 15 16 15 15 18 21 20 16 17 11 14 14 14 12 11 13 14
22 23 23 24 25 25 24 24 25 23 26 30 29 25 25 25 26 24 21 24 24 24 22 21 20 18 17 18 20 18 19 21 18 16 14 13 14 12 11 12 11 9 9
25 27 29 29 27 28 28 29 31 28 28 27 29 31 28 26 25 26 25 24 23 23 22 23 22 20 22 21 21 23 22 21 17 16 16 16 13 13 8 10 12 12 8
26 28 31 32 33 35 35 37 37 30 31 30 28 28 28 27 30 31 30 26 25 23 21 21 22 23 23 22 22 25 23 21 18 17 17 15 13 13 7 8 9 11 11
31 32 32 33 34 37 39 35 36 34 33 33 33 30 25 26 28 29 34 34 30 26 24 23 24 25 26 26 24 24 24 22 20 19 18 14 13 11 7 8 7 10 9
32 33 33 35 38 37 38 39 39 34 28 30 31 30 25 26 27 27 27 34 33 26 24 24 25 26 29 29 28 28 27 26 24 22 19 16 14 11 8 11 7 8 9
34 35 35 37 40 35 35 41 45 32 29 27 30 28 23 22 21 22 22 23 27 22 20 20 22 22 23 23 29 30 28 27 26 25 20 17 16 13 11 9 7 8 8
35 36 36 37 36 34 34 35 32 34 24 24 22 22 19 16 14 14 11 11 13 14 17 20 22 24 24 22 21 25 31 29 24 24 20 18 15 14 14 11 11 10 8
30 29 27 27 29 31 34 34 24 14 13 13 11 10 11 13 15 18 19 18 19 20 20 21 22 22 23 24 23 23 22 30 29 25 22 20 17 15 14 13 10 8 7

GFSGL_850_spd_015.txt.gz
Wind_Speed
26 23 21 15 12 10 8 11 10 12 12 13 13 14 14 10 8 14 17 18 14 11 14 16 15 17 14 17 20 22 23 27 28 33 35 37 38 40 40 36 31 29 27
28 23 19 15 13 11 10 11 14 13 15 14 15 14 12 9 14 17 20 16 14 16 17 21 16 17 21 22 25 27 28 28 32 35 35 35 34 32 30 30 28 25 24
30 26 21 18 16 12 11 15 14 17 18 17 18 14 8 13 18 19 12 13 14 16 15 17 21 18 21 24 26 28 29 30 25 25 29 27 25 23 24 23 24 22 23
29 25 21 18 16 15 16 14 15 19 19 19 18 12 11 17 19 20 19 17 18 15 18 15 17 20 23 27 30 29 26 26 26 27 26 26 25 25 24 27 27 27 28
28 22 20 13 14 17 15 12 16 21 20 21 16 14 15 18 18 20 17 18 22 22 18 17 19 22 27 29 25 26 27 26 28 28 27 28 30 29 27 29 28 34 36
29 24 17 15 23 16 13 10 13 15 20 19 19 20 19 19 21 21 20 19 19 18 18 18 20 24 24 24 24 25 24 26 26 21 24 26 25 23 25 29 34 36 36
29 23 22 23 21 17 13 14 14 16 18 21 23 24 21 21 22 21 20 20 19 20 20 20 21 23 23 23 24 25 21 22 20 19 20 25 29 28 29 33 28 25 27
25 25 24 22 18 13 11 12 13 18 22 20 24 21 22 22 21 20 18 18 20 21 20 21 22 21 21 21 23 22 22 21 19 15 20 27 28 22 18 19 23 26 26
26 25 19 15 12 8 4 13 17 26 20 20 20 19 22 22 20 19 19 20 20 20 21 23 19 18 20 22 22 24 23 20 17 16 16 17 16 12 13 17 19 25 25
21 14 10 8 4 4 9 21 22 20 23 24 23 22 22 22 21 20 20 20 19 19 22 19 17 18 20 21 22 23 21 17 18 18 18 19 12 12 12 14 17 20 23
14 15 12 5 6 7 16 21 22 24 26 25 16 21 22 24 20 18 18 16 16 18 21 17 18 19 19 19 21 18 14 16 18 20 22 22 17 15 14 13 13 15 23
14 5 3 8 7 15 19 22 22 21 17 13 17 19 21 22 20 17 14 15 17 19 19 17 17 17 14 17 13 12 13 15 18 21 22 23 26 18 14 15 15 15 18
8 14 9 7 16 19 19 18 17 16 14 14 16 18 22 22 21 19 16 15 17 20 20 18 17 13 15 13 11 12 14 16 19 20 22 23 26 18 16 17 15 14 16
8 6 11 17 16 15 16 14 16 18 20 19 16 17 21 22 21 20 20 19 18 20 20 19 18 18 18 14 12 13 13 15 18 19 22 24 21 17 18 14 14 16 19
10 13 14 15 15 15 16 17 17 18 20 20 20 22 22 24 23 24 25 23 21 21 21 22 23 23 21 17 13 14 13 13 17 20 21 25 20 18 17 11 12 15 17
15 15 15 15 16 17 19 19 15 18 20 23 23 21 22 26 26 28 28 26 24 24 24 25 27 26 24 18 14 15 14 14 18 20 24 21 19 16 15 11 11 13 14
16 16 17 18 19 20 20 21 23 23 24 26 25 21 21 24 25 24 26 29 26 26 29 27 27 26 23 18 15 14 14 17 18 21 25 18 15 12 14 13 13 12 11
23 25 25 24 23 24 25 26 27 30 32 26 22 21 22 23 23 26 27 27 28 29 31 28 26 24 21 18 16 16 15 17 19 21 21 16 13 14 13 12 12 12 12
20 24 26 29 30 32 32 33 31 30 33 33 34 31 24 22 24 26 25 30 32 32 30 28 26 24 21 19 18 17 18 20 19 22 20 17 17 16 13 11 10 11 11
23 24 25 28 30 33 36 39 39 39 38 37 36 33 28 23 24 24 28 32 33 32 30 28 24 22 21 19 20 20 21 22 22 22 22 17 17 17 13 10 9 11 12
33 34 33 31 30 32 34 37 39 38 41 41 39 33 29 26 27 27 27 27 32 32 36 28 23 23 20 20 21 22 24 24 23 21 19 17 16 15 12 10 8 9 11
32 35 36 36 36 36 37 37 36 38 43 39 35 33 32 26 26 27 26 28 29 28 29 37 27 24 22 21 21 23 25 25 23 22 20 18 17 15 12 11 8 9 11
32 33 32 31 33 35 37 37 36 37 37 30 35 37 32 28 26 23 23 25 24 26 26 33 30 23 22 22 22 23 27 26 24 22 20 20 19 15 14 12 10 11 11
26 27 32 32 29 29 29 34 36 34 35 36 39 35 24 26 21 19 18 16 17 18 17 32 20 18 18 19 19 20 20 21 26 24 22 20 19 16 15 13 12 11 11
25 25 28 29 27 28 27 23 19 15 17 22 21 17 19 16 17 12 12 12 15 17 14 12 11 15 19 22 22 22 21 20 19 23 25 21 19 17 16 15 13 11 11
24 24 24 25 24 24 24 23 21 19 16 14 13 10 6 7 8 8 11 13 16 19 18 17 20 22 22 23 22 21 22 22 21 18 26 25 21 19 17 15 14 14 12

GFSGL_850_spd_021.txt.gz
Wind_Speed
34 37 38 36 34 35 32 28 24 20 15 7 8 10 8 12 16 12 11 12 15 20 17 15 15 15 16 17 18 19 20 23 25 32 32 28 28 28 27 25 25 25 25
37 36 37 33 31 33 31 29 27 21 15 11 9 7 10 9 12 11 11 11 14 17 17 19 19 20 19 21 19 20 21 23 27 29 29 28 28 28 27 26 24 23 23
40 38 34 30 31 33 30 30 26 21 15 12 8 7 8 15 12 10 11 14 17 18 17 19 21 21 22 19 21 22 24 25 24 25 29 29 29 28 29 27 26 26 26
42 37 33 32 30 30 30 28 25 22 15 12 6 7 12 12 13 15 15 18 20 21 21 19 20 21 20 21 21 23 25 23 22 24 27 29 29 29 28 30 33 32 31
38 38 35 30 30 31 28 26 20 18 13 8 6 14 12 16 17 19 21 21 22 23 21 20 20 22 23 23 23 24 23 21 21 24 26 28 28 29 29 31 29 28 24
36 34 34 33 31 30 27 22 22 16 13 9 9 14 18 20 21 20 24 24 22 23 23 23 25 21 24 23 24 24 21 20 22 23 25 26 27 26 26 27 27 26 28
31 34 36 35 32 29 28 28 23 18 14 10 22 14 20 23 22 21 21 24 25 23 24 25 22 22 23 23 24 22 19 20 21 24 24 22 24 22 26 26 21 23 23
33 34 32 30 30 31 30 26 21 15 13 24 19 21 24 24 21 21 21 22 23 24 23 25 21 21 21 23 21 19 19 20 20 21 19 20 19 21 21 22 22 25 28
27 27 28 30 28 23 13 9 11 16 25 21 20 22 23 24 24 22 20 19 22 22 23 25 20 20 20 21 19 19 19 19 20 16 15 16 17 17 19 24 22 23 29
22 22 21 23 23 23 22 16 20 27 23 20 21 23 26 26 24 17 14 17 21 22 24 23 21 19 20 19 19 18 19 17 16 15 14 13 15 17 19 20 19 21 22
16 18 17 15 19 17 20 26 27 15 18 22 24 23 23 22 19 17 16 17 19 22 23 23 20 19 19 18 18 18 17 17 15 15 14 14 17 20 22 20 18 19 21
10 10 16 16 19 23 19 12 12 20 24 25 24 24 22 22 20 18 19 19 19 23 25 23 21 20 19 18 18 16 17 17 17 15 15 16 18 21 23 22 21 17 15
5 12 12 10 6 9 14 18 20 21 22 23 24 26 25 20 19 20 20 23 24 26 26 25 23 23 21 20 18 18 17 17 17 16 16 17 18 22 24 22 20 15 15
5 7 9 11 13 15 17 19 20 21 22 24 26 27 27 26 24 21 22 26 29 31 29 30 30 29 25 24 21 20 20 18 18 19 17 17 18 20 24 20 20 19 18
7 9 10 11 14 16 17 19 21 24 25 28 30 29 29 32 29 26 26 25 26 31 33 33 35 36 31 30 25 22 21 20 19 19 18 17 18 19 22 16 17 17 17
13 14 16 18 20 22 25 29 26 28 28 28 29 31 34 34 33 31 29 31 31 27 31 33 34 36 37 33 29 25 22 22 20 19 18 15 16 18 20 16 15 15 16
15 17 19 22 24 27 29 31 37 40 37 37 35 34 34 39 37 31 30 29 28 28 32 33 33 35 37 34 31 26 24 22 18 20 18 14 15 16 18 18 16 15 15
18 21 24 26 29 31 32 33 33 34 38 45 38 34 35 35 38 38 38 39 38 32 35 36 36 35 35 33 29 25 22 21 21 22 21 16 15 16 17 17 17 15 15
24 26 28 29 29 30 30 31 31 32 33 35 39 39 36 36 32 34 36 38 35 34 35 34 34 35 36 32 28 24 22 21 21 22 22 18 15 16 16 15 17 14 14
25 26 28 29 30 30 30 30 30 29 30 30 32 35 36 32 33 34 34 32 30 37 43 32 30 29 27 29 29 25 25 23 23 24 23 19 16 16 16 14 15 15 13
27 28 28 28 28 27 27 26 26 26 27 29 30 29 28 29 34 35 35 37 34 28 26 27 26 26 23 24 23 24 26 25 23 23 23 20 17 18 17 16 14 13 13
26 26 26 26 26 26 25 25 25 25 26 27 28 29 29 28 26 27 28 29 30 29 27 25 24 23 23 23 22 25 23 27 23 22 22 21 20 19 20 18 15 12 12
25 25 25 25 25 25 25 24 25 25 26 26 27 28 27 27 27 24 19 22 24 25 27 16 19 21 21 21 23 23 24 23 23 22 21 20 20 20 20 20 16 14 11
24 24 25 25 25 25 25 25 25 26 26 26 26 25 25 25 25 25 25 15 7 7 10 13 11 11 16 19 17 14 13 16 18 18 18 19 20 20 20 19 19 15 12
23 24 24 25 25 25 25 24 25 26 26 26 26 25 25 24 25 25 23 21 20 9 0 5 8 7 6 5 5 9 11 14 16 16 15 18 18 19 19 20 18 17 14
23 23 24 24 24 24 24 25 25 25 26 26 26 25 25 25 25 24 24 22 19 16 13 7 4 7 10 11 12 13 13 14 15 16 16 16 17 18 18 21 21 18 15

GFSGL_850_spd_024.txt.gz
Wind_Speed
40 32 29 32 36 38 38 35 37 34 27 26 21 17 10 8 9 5 17 13 10 9 10 11 11 12 14 16 17 20 19 21 26 29 30 28 27 27 27 26 25 26 25
28 31 31 34 35 32 31 33 35 31 28 23 16 12 9 9 5 17 13 11 11 10 11 13 14 14 17 18 19 19 20 21 23 29 30 28 27 26 27 27 25 25 26
27 30 33 36 34 34 33 34 34 31 26 20 15 11 12 7 16 11 11 12 12 14 17 18 17 17 18 18 19 19 20 21 23 26 27 28 29 27 28 27 28 28 25
31 31 33 33 36 32 32 35 33 29 22 16 14 13 11 11 11 13 15 15 16 18 19 21 20 20 20 20 20 20 21 22 23 23 24 27 27 27 27 28 29 29 28
34 33 33 34 31 30 33 33 31 26 22 18 19 17 10 17 13 17 20 23 25 25 23 22 23 22 21 22 21 21 22 23 21 21 23 25 27 27 25 25 28 29 26
27 29 28 30 32 31 32 32 26 24 23 21 18 15 16 20 15 19 23 25 25 28 28 24 23 23 23 22 21 23 24 23 20 20 23 25 25 23 23 24 25 27 23
21 23 26 30 33 32 31 30 28 27 24 21 16 16 21 16 17 23 24 26 26 25 26 27 24 24 24 22 21 24 25 21 20 21 23 23 22 20 21 24 25 27 26
17 20 24 25 22 24 25 24 23 25 29 27 21 21 24 20 23 24 24 25 26 25 26 26 25 24 24 21 21 24 22 20 20 21 23 19 19 19 19 22 25 28 27
12 14 15 15 17 19 20 23 21 19 21 26 25 27 23 20 25 27 27 25 25 24 23 25 25 24 22 20 21 22 21 21 19 21 19 17 17 17 18 21 24 25 29
3 6 7 11 17 20 18 15 19 23 27 30 32 18 21 27 25 24 23 21 22 20 21 24 24 26 21 20 21 21 22 19 19 19 16 15 15 15 17 19 21 22 24
5 6 9 10 11 14 18 20 23 26 22 16 19 24 27 25 25 24 23 23 23 22 22 23 24 25 22 21 21 20 20 17 18 18 17 16 15 15 16 18 18 19 20
9 5 1 7 13 13 12 11 11 15 19 22 26 28 26 25 25 26 24 24 22 25 25 25 25 25 24 24 23 21 19 19 19 18 19 18 16 16 17 19 19 17 17
2 3 4 5 7 9 11 14 17 19 22 24 26 29 30 29 26 25 25 24 24 28 28 28 28 28 26 28 28 25 22 22 21 21 21 19 16 16 18 20 19 17 16
4 6 8 10 11 13 15 17 19 21 23 25 28 31 33 34 33 27 27 28 28 27 31 33 32 31 32 34 33 29 29 24 24 23 23 20 18 16 16 19 20 17 18
7 9 11 13 15 17 19 21 23 23 24 28 30 31 33 38 37 33 32 32 32 33 30 32 32 35 37 36 38 37 33 29 26 25 23 22 19 16 14 16 17 17 17
11 12 15 17 20 23 26 29 28 30 31 31 31 28 33 33 37 36 34 35 36 37 36 37 39 38 35 34 35 36 38 34 28 25 25 23 21 17 14 13 16 17 17
15 18 21 23 25 27 29 32 38 38 34 33 32 31 29 32 35 37 36 34 35 37 46 42 37 39 36 34 33 33 35 36 28 25 25 23 21 18 15 12 14 16 16
17 20 21 23 25 27 28 29 31 34 39 40 36 34 33 32 30 31 31 33 38 28 29 35 39 36 38 36 34 31 32 31 25 25 26 23 22 19 16 12 13 14 15
20 21 23 24 25 26 27 28 29 30 32 34 37 35 34 34 32 31 27 27 28 29 30 30 35 32 33 34 31 26 27 28 24 23 23 23 23 21 18 12 12 13 14
20 22 24 25 26 27 27 28 28 28 28 30 31 32 34 35 35 36 33 30 28 28 34 34 31 35 35 30 25 24 22 19 24 24 23 22 22 21 18 13 12 12 12
22 23 24 24 25 26 26 26 26 27 28 29 29 28 28 30 31 31 31 32 32 28 30 30 26 26 25 25 25 22 22 21 23 25 25 22 23 22 19 15 14 13 12
22 22 23 24 24 25 25 25 26 27 27 29 30 29 28 27 28 29 29 29 29 29 23 21 26 25 26 20 19 20 21 21 20 23 24 22 22 22 20 18 16 16 12
21 21 22 23 23 24 24 24 25 26 27 27 28 29 28 28 28 30 30 29 28 26 26 16 9 15 20 15 18 18 19 21 21 20 25 24 24 23 21 19 18 18 14
21 22 22 23 23 23 24 25 24 25 26 27 28 28 28 28 28 29 30 29 27 25 20 22 15 4 8 11 14 16 14 13 14 16 22 23 22 22 22 21 19 18 15
21 21 22 23 23 24 24 24 24 25 25 26 27 27 28 28 28 28 28 28 27 25 21 17 16 14 4 3 2 3 5 8 7 9 15 19 19 19 19 20 22 19 18
21 21 22 22 23 23 24 24 24 25 26 26 26 27 27 28 28 28 28 27 26 24 21 17 14 11 11 6 2 5 4 2 2 7 9 11 13 14 16 17 19 22 18

GFSGL_850_spd_027.txt.gz
Wind_Speed
37 35 36 34 30 29 30 35 38 37 35 34 30 27 19 15 16 11 9 15 15 14 14 12 9 8 10 12 14 17 18 19 20 21 20 19 28 25 24 27 28 29 28
28 32 31 31 33 30 30 32 30 30 34 33 31 26 23 17 14 11 11 13 14 16 14 14 12 12 13 15 18 20 21 20 21 23 21 20 20 22 26 27 26 27 28
22 26 30 31 30 29 28 27 28 29 31 31 28 24 20 16 12 8 15 14 17 16 16 17 17 18 18 19 21 21 23 23 24 24 24 20 20 19 21 22 24 25 24
21 23 27 28 29 29 23 21 24 28 30 28 24 19 15 13 9 11 21 11 17 18 18 21 21 22 23 22 22 23 24 24 23 23 21 20 18 18 21 19 22 20 22
13 15 18 20 21 20 20 22 25 27 27 25 23 22 21 16 16 23 14 18 22 25 27 29 29 28 25 24 24 24 24 24 21 19 20 18 18 18 18 18 20 21 21
8 9 11 13 15 17 20 23 25 24 25 25 28 27 27 23 18 21 16 23 25 27 29 29 30 30 30 25 25 23 24 24 24 19 17 18 18 18 17 17 19 21 24
10 11 11 11 12 15 19 22 21 22 27 27 25 27 27 26 27 23 22 23 30 28 28 30 30 29 29 27 25 24 24 25 25 21 20 18 19 18 16 17 17 20 23
8 8 8 7 8 12 15 16 17 22 23 26 31 32 31 31 31 28 17 28 31 32 32 31 30 30 29 27 25 25 24 25 25 23 22 21 21 19 18 16 19 21 22
5 5 4 2 2 4 7 9 14 23 26 28 28 30 33 34 29 18 26 30 29 30 28 28 29 28 27 27 27 25 24 24 24 22 22 21 20 19 17 15 17 21 23
9 8 7 6 3 2 2 6 11 14 17 21 25 27 26 20 22 26 26 27 29 29 28 26 26 26 26 27 28 25 25 23 21 21 22 21 20 18 16 16 16 19 20
14 13 11 7 3 1 4 9 12 15 16 15 17 20 23 25 28 26 26 28 30 30 30 28 27 26 26 28 28 27 26 21 22 22 22 20 19 17 16 15 15 17 18
10 7 4 1 3 6 6 5 7 11 15 18 22 24 25 25 26 27 27 27 29 31 30 30 29 27 28 30 29 30 27 25 25 24 23 23 20 17 15 15 16 18 18
4 3 3 3 4 6 7 9 11 14 18 21 24 27 29 29 30 29 28 29 27 29 32 32 29 30 30 31 34 32 30 32 30 28 26 25 21 17 17 18 18 19 18
4 3 4 6 8 10 12 14 15 18 20 23 25 28 31 32 29 26 29 30 31 32 31 32 33 31 33 36 37 34 34 36 37 34 29 25 22 21 20 19 18 16 16
4 6 7 9 11 13 15 16 18 18 20 22 23 24 29 33 33 34 37 38 34 31 31 34 37 37 39 39 42 42 39 38 39 40 34 28 24 22 21 19 18 17 15
6 8 11 13 15 17 18 19 20 21 22 21 21 23 23 25 30 32 32 33 35 34 36 39 34 36 38 41 43 40 38 35 38 40 40 33 27 24 21 19 19 17 13
9 11 14 16 18 20 22 24 25 25 26 26 25 25 25 27 28 28 30 31 29 29 24 26 32 35 36 37 32 35 34 30 29 31 32 36 28 25 23 20 18 16 13
11 13 15 17 19 21 22 24 25 27 29 27 27 26 27 28 28 28 29 31 30 25 21 22 25 26 27 31 29 29 34 30 28 28 29 27 29 26 24 23 18 16 12
13 15 16 17 18 20 21 23 25 26 27 29 30 29 30 30 29 27 27 27 29 29 28 26 25 25 26 29 31 29 31 27 24 25 24 25 27 26 25 23 18 16 13
14 15 16 16 18 19 21 22 24 25 26 27 28 30 32 33 32 31 28 28 27 28 29 29 29 26 24 27 26 30 27 25 23 22 23 26 26 25 25 25 21 18 13
13 14 15 16 18 19 20 21 22 23 24 25 26 27 27 29 29 28 26 28 29 29 29 29 29 28 23 21 26 30 25 23 21 21 21 26 28 26 24 25 22 19 15
13 14 15 16 17 18 19 20 21 22 23 24 26 26 26 26 27 27 28 29 28 28 27 27 27 24 24 15 14 28 24 21 21 20 21 24 29 26 24 25 23 21 17
13 13 14 15 16 17 18 19 20 21 22 22 24 26 26 26 27 27 28 29 28 27 26 25 24 22 19 18 7 14 17 17 16 16 20 21 27 28 26 27 25 23 20
13 14 14 16 16 17 18 18 19 19 20 22 23 24 25 26 27 27 28 28 28 27 25 24 22 21 18 17 12 6 16 18 17 16 16 18 22 27 26 26 25 22 19
13 14 15 16 16 17 17 17 18 19 20 22 23 24 25 26 27 27 28 28 28 27 24 22 21 19 18 13 13 9 2 7 11 10 12 16 21 27 26 25 24 23 21
14 14 15 16 16 17 17 18 19 20 21 22 22 24 25 26 27 27 28 28 28 26 24 22 20 18 16 14 11 12 5 3 3 8 7 11 18 23 23 24 23 24 25

GFSGL_850_spd_030.txt.gz
Wind_Speed
23 22 23 26 31 27 29 35 35 33 34 35 37 36 33 26 26 22 17 13 12 13 14 16 15 13 13 13 14 16 17 18 21 22 20 20 20 22 21 21 23 23 23
16 17 19 24 26 28 28 30 30 31 31 32 34 33 25 26 22 18 14 13 12 19 17 18 17 16 17 16 17 18 19 19 21 25 23 22 22 22 22 22 21 22 23
16 16 17 19 23 25 26 28 26 25 27 31 32 28 29 26 23 19 21 18 22 17 17 19 21 20 21 21 20 21 20 20 21 23 25 22 22 21 21 21 21 21 21
10 10 13 14 16 17 19 20 20 20 22 25 27 27 27 24 22 22 23 25 21 16 20 21 22 24 25 24 23 24 23 22 22 23 23 23 22 20 20 21 22 21 22
4 5 7 8 9 10 11 12 15 15 17 17 20 24 23 24 25 22 21 21 20 18 21 23 26 29 31 31 28 27 24 23 22 22 23 23 22 20 20 21 21 21 21
3 4 5 6 5 6 7 8 10 11 13 14 21 24 27 27 28 29 26 24 21 21 24 23 25 29 33 34 35 35 32 25 23 23 24 23 22 20 20 20 19 20 23
0 1 1 2 2 3 4 5 8 10 13 18 23 25 25 30 34 29 29 29 32 24 23 24 26 26 29 30 31 33 36 32 28 25 25 23 22 20 20 19 18 19 21
3 3 3 3 2 1 2 3 4 6 10 14 20 23 28 33 30 31 33 34 23 23 25 27 28 29 28 29 25 29 31 31 28 28 27 23 21 19 18 18 18 19 20
7 8 8 9 9 10 10 9 6 1 7 13 17 21 23 22 26 30 27 22 25 28 25 25 26 27 27 30 32 28 28 24 23 29 26 26 26 26 25 21 18 17 21
11 12 13 13 12 10 7 4 2 2 5 9 13 16 21 23 18 20 23 26 27 27 28 27 28 31 28 30 32 32 30 26 23 22 26 25 26 27 25 24 18 19 20
14 13 12 11 8 6 1 3 5 7 9 10 11 13 16 18 20 21 22 24 25 27 28 30 28 29 30 28 32 34 38 33 24 26 23 20 19 19 18 19 17 18 20
10 8 6 5 4 4 3 2 3 5 7 9 12 14 14 15 18 20 24 25 26 28 34 31 31 32 33 30 32 36 38 37 33 23 23 23 22 20 19 19 19 19 19
8 7 6 5 3 2 2 4 4 6 8 10 11 12 13 15 17 22 27 29 32 35 36 35 37 37 36 37 37 36 38 38 37 35 33 28 24 21 19 19 19 19 19
7 6 4 2 1 2 4 6 6 9 10 11 11 12 14 16 16 20 28 31 31 32 32 37 40 40 40 37 36 37 39 44 44 41 36 31 28 23 20 19 18 17 17
6 4 2 1 2 4 6 7 8 11 13 14 15 16 18 19 18 25 28 29 30 32 36 36 31 30 32 35 34 35 35 36 44 44 38 32 31 30 27 18 18 17 17
4 2 0 2 4 4 5 5 13 11 12 13 13 17 19 21 23 25 26 28 28 28 29 25 27 27 27 28 32 33 32 34 41 43 44 36 32 31 30 20 18 18 16
2 0 3 4 5 6 7 7 8 11 18 19 18 19 21 23 25 26 27 28 26 24 19 21 23 24 26 26 26 30 36 28 30 41 37 30 27 31 29 23 19 18 16
1 3 4 5 6 7 8 9 9 11 12 12 17 21 23 24 24 25 25 25 20 19 19 21 23 25 25 24 27 26 23 23 27 28 31 27 26 27 28 26 20 19 16
3 5 6 7 8 9 10 11 11 12 13 14 15 15 20 25 25 21 21 17 19 20 21 22 22 24 26 26 25 27 27 27 29 27 27 27 24 23 25 25 19 20 18
5 6 6 7 9 10 11 12 12 13 13 13 13 15 21 25 20 18 17 17 18 19 21 22 24 24 25 26 28 26 23 26 25 21 25 23 21 22 25 26 20 20 19
5 7 8 8 9 11 12 13 14 14 14 14 14 16 21 23 16 17 18 18 19 20 21 22 24 25 25 26 28 26 21 20 27 21 20 21 20 22 25 24 21 20 17
6 7 8 9 11 12 13 14 14 14 15 16 16 17 21 16 16 18 18 18 20 20 21 22 25 25 24 25 27 24 20 11 16 20 19 19 19 21 24 26 22 22 20
8 9 9 10 11 13 13 14 14 15 16 17 17 18 18 18 19 18 20 21 21 24 24 24 25 25 23 23 22 21 19 17 9 11 18 18 20 21 26 28 24 24 22
10 10 10 12 13 13 14 14 15 16 17 17 17 17 18 19 20 20 21 22 24 25 25 24 24 23 23 21 20 19 16 17 15 13 14 15 17 19 22 28 25 24 22
11 11 12 12 13 14 14 14 15 16 16 17 17 17 18 19 20 20 22 24 25 26 25 23 21 22 21 20 18 17 17 15 12 10 11 13 16 19 22 28 26 24 23
12 13 13 13 14 14 15 15 15 16 17 17 18 18 19 20 21 22 24 24 25 25 23 22 20 20 20 19 18 17 17 14 14 5 10 10 14 17 19 27 26 24 23

GFSGL_850_spd_033.txt.gz
Wind_Speed
26 25 26 26 27 29 34 31 28 31 32 31 32 32 35 38 35 28 23 17 21 16 17 16 17 19 17 16 16 15 17 18 22 23 21 21 20 21 23 23 23 25 25
21 21 23 23 28 30 30 25 27 28 24 26 28 32 31 33 26 24 21 21 15 16 17 22 20 17 19 19 18 20 20 20 23 25 25 24 23 23 24 24 25 22 24
17 17 17 21 24 26 22 18 20 22 23 25 27 27 28 26 22 21 16 15 21 16 24 18 18 21 23 23 23 24 23 23 25 26 26 25 24 23 24 24 24 23 23
13 12 13 12 12 13 14 17 17 18 20 23 23 22 20 22 23 17 22 24 19 30 18 18 20 22 25 26 27 28 28 29 30 28 28 27 25 24 22 24 25 22 23
10 9 9 7 8 7 7 7 7 10 11 11 11 12 16 21 18 26 24 18 25 24 18 19 22 25 28 31 31 33 32 33 32 31 29 28 25 25 23 23 24 23 22
11 10 8 7 6 6 7 10 11 11 11 10 8 10 15 22 24 26 25 22 28 25 25 25 25 28 29 27 33 36 38 44 45 35 33 30 29 26 24 24 23 22 24
10 8 6 6 5 4 5 4 4 3 3 5 5 10 15 18 19 24 25 27 32 29 34 34 24 22 25 29 31 34 38 40 41 48 38 34 30 25 24 25 23 23 23
9 8 7 7 6 7 6 5 4 4 3 2 6 11 11 12 17 18 24 27 28 30 23 21 25 28 28 29 33 35 36 37 40 38 47 48 31 25 24 23 22 22 22
12 11 11 11 12 11 12 10 9 8 7 6 5 6 9 13 18 19 21 25 19 21 23 24 25 27 30 32 34 39 39 39 38 39 36 37 36 30 29 22 23 20 24
14 14 14 13 13 11 10 10 9 6 5 2 4 7 10 13 12 14 21 21 23 23 24 25 26 29 32 34 35 38 39 40 36 36 38 38 35 34 33 32 28 25 22
15 15 14 12 11 8 5 4 3 1 2 2 3 3 5 7 8 16 21 23 26 31 34 36 33 31 33 35 37 35 40 37 37 37 36 32 24 24 27 26 24 24 23
12 11 10 7 6 7 7 5 4 2 1 1 3 4 4 4 10 18 22 27 30 33 35 38 38 41 43 43 44 46 43 39 36 42 38 34 28 27 25 23 24 22 20
12 11 10 9 7 6 5 3 2 1 0 3 4 5 5 9 9 16 25 27 28 31 32 35 38 39 40 41 40 37 38 34 41 41 45 46 43 35 29 27 26 25 23
13 11 10 8 6 5 3 2 1 2 4 5 5 6 7 11 11 21 26 29 29 29 31 35 35 33 30 32 34 33 34 32 38 38 42 43 39 34 33 31 29 26 25
12 10 9 7 6 4 4 3 3 8 8 8 10 10 13 15 17 21 24 26 28 29 32 31 25 27 30 30 31 30 29 29 31 34 35 43 39 38 39 34 32 30 24
11 10 9 7 6 3 2 6 7 9 9 11 12 12 14 18 19 21 24 25 25 25 23 21 25 27 27 28 30 30 30 33 27 30 33 34 39 34 35 33 30 28 24
9 8 7 5 4 4 2 3 2 12 14 15 16 16 17 17 20 23 24 24 20 18 17 20 23 25 27 26 28 30 31 31 34 35 33 30 34 33 36 32 27 27 25
8 7 5 3 3 2 3 4 4 5 6 7 12 18 20 20 20 22 22 19 15 15 16 19 21 23 25 26 29 30 31 32 30 30 19 20 25 33 31 29 27 27 25
5 4 4 5 5 6 6 5 5 6 7 8 9 10 14 23 21 18 18 15 16 17 18 19 20 22 24 26 27 28 30 31 27 27 23 23 21 27 29 27 26 26 26
3 4 4 5 6 5 5 5 6 7 8 8 10 11 14 20 19 14 15 16 17 18 19 20 21 22 24 25 26 26 29 31 27 26 22 24 23 24 27 26 25 27 26
4 5 6 6 7 8 8 8 8 8 9 9 10 13 21 21 15 15 16 16 18 19 20 21 23 23 23 24 24 25 27 29 27 26 18 24 22 21 23 25 26 27 23
6 7 8 9 9 10 11 10 10 10 9 10 11 12 18 15 13 15 16 17 18 18 19 21 22 22 23 22 23 25 26 28 28 28 22 12 17 18 20 22 27 26 24
8 9 10 11 11 12 11 10 10 9 10 11 12 13 13 14 15 15 16 18 19 20 20 21 22 24 22 21 23 22 24 25 27 27 24 15 11 18 19 21 25 25 25
10 10 10 11 12 12 11 12 10 12 12 12 13 13 13 14 15 16 18 18 20 20 20 22 23 22 22 23 22 21 21 24 24 24 22 19 14 18 18 21 24 26 25
11 11 11 11 11 10 10 10 11 11 12 13 14 14 14 15 16 16 17 19 19 20 23 23 21 21 22 23 21 20 22 22 21 21 20 15 11 14 17 18 22 27 26
11 11 11 10 10 11 11 11 12 12 13 14 14 15 15 15 16 17 18 18 19 24 23 21 21 21 22 23 21 21 22 21 21 20 17 13 7 9 17 17 22 27 27

GFSGL_850_spd_036.txt.gz
Wind_Speed
33 37 38 42 44 30 26 37 35 32 29 28 28 30 30 27 28 31 33 28 23 17 20 22 22 20 20 22 23 23 25 26 28 28 23 24 24 25 24 26 27 29 31
30 33 29 28 31 25 27 29 31 28 22 22 23 26 27 27 28 30 28 25 21 22 21 23 18 25 17 19 23 28 30 27 26 30 31 29 30 29 30 29 29 30 33
24 26 19 24 27 23 24 27 26 25 19 18 19 24 26 24 22 22 24 21 20 20 25 17 23 15 19 22 25 28 27 28 29 30 33 32 32 32 29 28 29 29 29
16 17 20 22 17 15 18 20 18 17 17 19 21 24 24 22 18 21 20 16 22 23 22 21 17 18 22 23 26 30 32 34 34 36 38 39 39 33 32 30 29 28 28
18 15 15 16 13 12 12 13 14 15 17 17 19 22 21 17 17 18 19 20 23 23 26 20 17 19 23 26 30 35 35 34 33 33 37 37 37 35 33 31 29 26 25
17 17 15 10 9 7 8 10 9 9 9 7 9 9 11 12 10 13 15 17 21 20 22 25 26 28 28 31 30 31 31 33 39 42 47 42 41 38 36 32 31 28 29
18 14 15 16 16 15 15 13 13 12 8 6 5 5 7 8 9 10 14 18 19 22 26 29 28 21 19 23 27 30 34 35 37 41 44 50 49 43 39 32 30 29 30
18 16 14 13 11 11 11 11 9 8 8 7 7 7 7 8 9 11 12 14 19 23 24 18 20 23 25 27 30 34 38 41 43 42 43 46 47 43 41 34 29 28 30
17 15 13 13 13 11 10 10 9 8 7 6 5 6 7 9 9 11 15 16 19 18 19 20 22 25 27 31 34 38 42 45 44 42 43 41 45 45 37 37 32 28 35
17 16 15 14 14 16 14 12 9 10 11 11 9 7 4 7 8 10 13 18 22 24 25 27 28 30 33 35 39 42 46 49 47 48 42 42 41 43 43 39 39 32 35
17 18 19 19 15 12 12 11 10 8 8 7 6 5 3 7 10 12 16 21 23 25 27 30 32 34 35 35 35 37 38 38 42 47 51 50 39 40 47 47 42 37 38
21 19 16 13 10 9 9 10 10 8 7 5 6 7 6 8 9 16 21 23 24 26 29 32 33 33 35 34 32 29 28 30 34 36 36 36 38 40 42 45 40 30 27
16 15 13 13 13 12 12 12 10 8 11 11 8 8 9 11 14 20 21 21 23 26 28 30 31 32 31 29 30 33 30 29 31 34 36 35 35 35 38 35 29 26 24
17 16 16 15 13 11 10 11 12 12 9 7 9 10 13 14 18 19 20 23 24 25 28 29 29 27 23 30 33 30 30 31 29 29 32 32 31 31 29 31 35 33 30
18 17 16 16 12 14 11 8 8 6 7 9 10 11 13 14 16 18 21 23 23 25 27 26 24 22 30 32 31 30 30 30 31 30 34 35 31 30 31 37 41 38 37
17 16 15 15 12 7 6 6 7 8 9 9 10 11 13 15 15 17 19 20 20 20 21 20 21 24 27 30 32 32 32 32 31 33 31 34 33 29 30 25 39 41 38
17 14 13 11 10 9 8 5 6 9 10 11 12 14 12 15 14 17 19 19 16 15 16 18 21 24 27 28 29 30 32 32 32 32 34 30 29 28 25 24 27 31 35
14 13 10 8 6 6 7 7 8 10 10 11 13 14 20 22 18 19 20 18 15 15 15 17 21 24 26 26 28 29 30 31 31 35 32 27 27 25 19 21 30 34 30
13 10 6 4 4 6 7 8 8 8 8 9 9 8 14 21 21 18 11 16 17 16 18 20 22 23 25 25 27 28 28 29 31 31 30 30 29 22 18 21 27 28 22
5 2 3 5 5 6 7 7 8 9 10 10 11 12 19 23 23 16 12 16 17 17 20 22 22 25 26 26 26 26 27 28 29 30 30 31 28 19 17 20 25 24 24
5 5 6 5 7 8 9 9 10 11 11 12 12 16 20 21 21 12 16 16 18 21 22 20 24 24 25 24 25 25 26 29 27 28 30 32 29 22 14 23 19 24 25
5 5 5 7 8 11 11 10 12 12 12 12 14 15 17 19 16 18 19 17 21 21 20 24 24 22 23 26 23 25 27 27 27 29 33 32 30 25 14 12 16 20 24
6 8 8 10 10 12 11 11 13 12 14 16 15 14 15 16 18 19 19 21 21 21 24 23 23 25 24 20 22 23 24 24 27 31 32 31 30 26 18 12 16 19 26
8 9 9 10 12 12 10 13 14 11 13 14 14 16 16 17 18 19 19 21 23 25 23 22 25 23 21 23 22 22 20 22 27 28 27 29 29 24 19 13 14 18 24
10 11 11 10 11 11 12 12 12 13 14 15 16 17 18 17 17 18 20 21 24 24 22 24 23 21 20 20 20 19 23 24 22 23 25 24 25 21 16 10 15 17 21
10 10 13 12 11 11 13 14 14 14 16 16 17 19 16 17 19 20 19 21 21 23 25 23 21 18 17 18 18 23 22 21 22 22 22 22 21 18 14 9 12 15 22

GFSGL_850_spd_039.txt.gz
Wind_Speed
38 45 49 51 53 45 40 41 35 27 32 30 33 30 31 32 34 31 26 25 27 29 27 24 23 24 24 20 23 21 24 27 32 35 34 31 28 27 31 31 32 33 35
32 46 48 52 47 40 38 33 32 28 30 24 20 23 25 25 23 23 23 25 27 27 26 25 25 22 22 23 20 23 25 26 32 37 36 33 32 34 36 35 35 38 38
37 39 41 34 27 29 30 22 20 25 21 18 21 20 19 18 20 20 19 21 24 24 24 22 22 17 21 17 19 22 25 27 28 33 38 38 39 37 38 38 37 40 43
24 24 21 18 17 19 21 18 20 18 20 19 17 16 16 16 18 18 17 18 20 21 20 18 18 19 15 17 20 23 25 28 31 34 39 44 44 40 37 41 43 41 45
20 19 18 18 21 19 15 14 17 17 15 15 16 17 19 19 18 18 16 17 15 15 15 16 21 16 18 22 25 29 30 32 35 39 44 41 43 43 44 45 45 44 42
19 20 20 20 19 16 16 17 15 14 13 15 16 17 18 19 17 14 10 9 11 12 17 19 18 21 25 22 17 16 18 24 30 34 38 38 42 41 42 43 44 44 43
20 20 20 18 16 16 14 15 14 13 12 12 13 13 13 12 10 10 9 10 12 15 18 19 19 21 16 21 24 26 28 30 32 35 38 41 41 42 40 40 43 44 43
20 19 18 18 16 15 15 13 12 10 10 10 10 10 10 10 8 8 10 13 15 14 16 17 18 20 22 25 30 34 36 37 39 41 42 44 43 41 38 40 43 44 44
23 21 21 20 20 17 15 13 12 12 12 11 9 10 11 10 8 10 10 11 14 15 15 19 20 23 26 30 34 37 39 40 38 39 39 41 44 47 49 44 40 37 40
22 20 18 16 16 15 14 14 15 14 12 11 12 11 12 11 11 12 14 15 16 17 19 20 21 22 25 26 29 31 35 36 37 39 39 36 33 33 35 36 41 38 41
22 22 21 18 16 14 15 15 14 14 13 13 14 15 13 12 13 14 14 15 17 19 21 21 22 24 25 25 23 24 26 31 35 34 35 34 32 31 35 32 28 30 42
23 21 19 18 17 16 16 15 14 15 15 15 15 14 12 12 14 15 15 16 19 20 21 24 24 24 23 21 20 21 28 30 29 31 33 31 32 33 32 34 32 28 32
24 22 19 15 15 14 17 18 17 15 14 15 15 15 15 16 16 16 17 18 19 20 22 23 22 21 19 20 22 27 26 26 28 30 30 30 34 37 36 29 30 30 32
24 20 19 19 21 21 20 20 19 18 17 17 17 17 16 15 16 17 18 19 20 20 21 21 20 20 20 22 25 26 27 26 27 29 31 34 35 32 32 30 28 30 31
23 24 25 25 25 24 22 18 16 16 15 14 15 15 16 17 18 16 18 18 19 20 20 19 20 21 24 25 26 27 28 28 29 29 29 34 36 31 29 25 27 23 32
26 25 24 22 20 18 16 15 13 10 11 11 12 13 13 15 14 14 16 16 17 18 17 18 19 21 23 25 27 28 29 29 29 29 28 33 34 30 32 29 24 23 28
23 22 22 18 16 12 9 8 7 6 5 6 7 9 11 13 12 12 14 14 14 16 15 16 18 21 24 25 26 28 29 29 28 28 30 31 31 31 33 29 20 20 20
18 18 18 17 15 12 8 5 5 7 9 10 12 13 15 14 15 16 17 17 16 16 16 17 20 22 25 25 26 27 28 28 27 28 29 29 29 33 34 28 21 16 23
15 15 12 10 6 5 5 5 7 10 11 11 12 14 16 16 17 19 20 17 17 17 18 19 21 24 24 26 27 27 26 27 26 28 26 28 29 33 32 26 22 17 22
11 9 7 9 8 7 6 8 9 10 11 12 13 15 17 20 22 20 15 15 17 18 19 21 24 23 24 27 27 26 26 25 25 25 26 27 30 30 30 28 23 18 22
12 10 8 4 4 5 7 10 12 14 14 14 15 17 18 19 19 17 15 17 19 21 22 25 24 24 26 24 24 25 23 25 24 24 26 29 32 31 28 27 23 15 21
5 3 2 5 9 10 10 11 14 14 15 15 15 16 17 19 18 17 18 20 22 22 24 24 25 26 22 23 23 22 23 23 23 24 27 31 30 29 29 28 24 15 14
2 4 6 7 9 11 11 12 13 13 15 15 16 16 15 16 18 19 20 22 23 23 24 26 27 22 22 22 20 20 20 19 22 25 28 29 30 29 29 28 25 13 9
4 4 6 9 11 12 11 11 12 12 11 14 16 17 18 19 19 20 22 23 23 25 27 27 22 23 22 20 18 15 15 19 22 23 23 27 29 28 27 26 24 15 10
7 7 8 9 10 10 11 12 13 14 15 17 18 19 20 21 23 23 22 23 26 27 26 23 22 22 21 18 16 15 18 20 18 20 23 25 26 25 24 23 22 13 10
8 8 10 10 10 11 13 14 15 16 18 19 20 21 22 21 21 24 25 25 25 24 23 23 22 20 18 16 15 17 17 17 19 21 22 21 22 22 21 21 20 12 8

GFSGL_850_spd_042.txt.gz
Wind_Speed
51 49 50 50 50 49 49 46 43 43 39 28 34 34 38 38 38 38 35 34 34 31 29 28 28 30 29 29 26 27 30 27 31 33 32 30 30 31 30 34 35 37 37
52 45 42 39 39 41 42 46 44 31 26 34 41 33 33 36 34 32 32 33 32 26 25 27 28 29 26 23 23 26 25 24 29 31 32 32 33 30 32 32 35 40 43
47 43 40 33 31 44 40 41 36 39 38 39 34 30 25 27 28 27 27 25 21 21 23 26 27 24 22 24 21 22 21 23 25 31 35 35 35 36 39 39 42 43 46
49 50 48 37 34 38 37 39 43 39 38 41 31 25 23 23 22 22 21 19 20 22 23 22 21 21 23 21 17 18 22 26 28 32 36 38 39 40 37 36 39 39 40
45 43 46 45 34 31 36 35 32 38 33 29 27 25 21 20 20 20 20 18 19 18 19 18 18 18 18 22 19 23 26 29 30 29 32 34 36 35 38 41 39 41 43
40 38 36 34 34 30 28 27 26 27 26 24 22 21 21 22 20 19 18 16 16 16 16 16 16 16 23 21 23 23 20 23 26 28 31 34 39 37 36 36 38 37 40
26 30 27 29 28 28 29 26 25 23 22 20 20 21 21 20 20 19 17 17 15 15 15 17 20 23 21 24 24 23 24 24 28 32 38 39 43 43 42 46 45 43 43
26 28 31 31 30 27 25 23 22 22 19 17 18 19 20 19 17 18 18 16 15 17 19 19 19 20 22 24 25 28 30 31 32 33 35 39 39 39 35 36 35 39 47
24 25 25 24 22 21 21 21 19 18 17 17 16 16 16 18 17 17 16 16 17 18 17 17 18 21 23 26 28 29 30 30 30 31 31 32 32 30 26 28 32 32 36
21 20 19 19 17 18 17 18 17 16 16 15 16 15 16 17 17 15 15 15 15 15 17 19 21 23 23 23 26 28 30 31 32 33 33 32 32 30 27 24 26 28 34
22 22 21 19 17 16 16 16 16 17 17 17 17 16 16 15 16 17 15 14 15 16 18 20 19 20 22 24 26 24 25 28 31 32 32 33 33 32 31 31 31 31 31
23 21 20 18 17 17 17 18 18 18 17 18 20 22 21 20 18 17 15 15 16 17 17 18 19 20 22 22 22 22 24 26 28 30 32 33 34 36 36 36 32 31 29
22 20 18 16 15 14 15 17 17 17 18 19 20 21 21 20 18 17 16 16 17 17 18 19 20 20 19 18 19 21 22 24 26 27 29 30 32 33 34 36 32 30 26
19 18 18 18 18 18 18 17 17 18 18 18 18 18 18 17 15 14 15 15 17 17 17 16 17 18 17 18 19 20 21 22 24 26 27 29 30 32 33 31 34 29 28
20 21 20 19 19 20 18 17 18 15 12 12 14 14 14 15 15 15 16 17 17 17 17 17 17 17 18 18 19 20 21 22 24 25 26 27 29 31 32 29 32 26 29
22 20 20 19 19 18 19 19 16 13 12 11 11 12 13 14 16 16 16 17 17 17 16 16 18 18 19 20 21 23 23 24 24 25 25 26 28 29 32 30 31 28 28
21 22 21 20 18 16 13 10 11 10 10 10 11 11 11 12 12 11 11 10 11 15 15 17 18 19 21 22 23 24 26 25 25 25 24 25 26 27 29 31 31 29 27
20 19 19 18 16 13 11 9 7 6 6 7 8 11 14 14 14 14 16 18 18 18 18 19 20 21 22 24 25 26 27 26 25 25 24 24 24 26 29 30 30 29 29
18 16 14 11 8 6 5 7 9 10 11 10 10 12 14 15 18 18 20 21 18 17 18 19 21 22 24 25 25 27 26 26 25 24 23 23 23 25 28 27 28 27 26
10 9 9 11 12 13 11 10 9 8 9 10 12 13 15 16 18 19 19 18 18 18 19 21 22 23 25 25 25 24 25 24 23 23 22 23 23 24 26 27 27 29 26
13 12 10 7 7 6 6 6 7 8 10 11 12 14 16 17 18 19 20 19 19 20 21 22 23 24 25 26 24 24 24 22 22 21 22 23 24 25 25 26 26 26 24
7 6 4 3 3 4 5 7 8 9 10 11 12 14 17 19 19 18 18 18 20 20 22 23 24 25 26 24 24 25 23 21 20 22 23 24 24 25 26 27 27 25 24
2 1 1 2 4 6 7 7 8 10 12 14 14 14 15 16 17 18 19 20 21 23 24 25 26 27 25 22 22 21 21 20 21 22 24 24 26 27 27 28 26 27 25
4 5 5 5 7 8 8 9 9 10 10 12 14 15 16 17 19 20 21 23 25 25 25 27 28 27 23 23 21 18 19 20 21 21 20 24 27 26 26 25 25 25 25
7 7 7 8 7 7 7 9 10 12 13 14 15 17 18 19 21 21 21 22 25 26 26 26 25 24 24 22 20 19 19 20 19 18 20 23 24 24 24 25 25 25 24
7 7 8 8 8 9 10 11 11 13 14 15 16 18 20 20 21 23 25 26 26 25 24 24 24 23 22 21 20 19 18 18 17 16 20 22 23 23 23 25 24 23 21

GFSGL_850_spd_045.txt.gz
Wind_Speed
51 53 53 52 51 49 48 47 49 49 46 41 43 38 30 36 35 37 39 39 33 33 40 39 37 35 27 27 27 30 31 26 27 33 30 29 28 29 30 30 32 33 33
54 53 53 51 49 44 40 45 48 48 39 46 39 31 33 42 40 37 37 34 33 36 39 35 35 29 25 27 28 29 26 26 28 28 29 30 29 30 32 34 35 35 37
53 55 55 53 50 51 47 37 42 53 49 44 28 36 42 34 31 35 35 33 34 33 34 28 24 22 24 25 25 24 25 26 25 27 29 29 29 30 34 37 39 41 39
48 50 51 51 51 48 49 43 40 44 41 34 38 35 41 36 33 29 27 28 30 28 23 20 21 22 23 22 24 25 26 25 24 27 30 33 34 33 34 36 40 41 44
44 45 47 45 45 47 48 41 39 40 40 37 40 40 46 39 35 29 27 25 23 21 20 20 21 21 22 23 24 25 25 25 28 28 30 29 30 32 34 37 41 45 50
34 38 40 42 41 39 42 39 35 37 37 41 35 42 34 30 25 23 21 23 24 22 20 21 20 22 22 21 23 23 24 27 24 25 28 31 34 37 39 40 41 43 49
26 29 35 39 41 43 46 44 40 31 29 29 31 27 24 24 23 24 26 25 23 23 22 22 25 24 22 21 21 24 27 24 24 29 32 33 36 34 36 37 35 36 43
25 27 30 34 38 40 42 36 27 27 24 26 25 26 25 25 26 27 26 25 23 22 23 24 22 21 22 24 25 25 23 25 27 29 29 30 31 32 31 32 34 39 44
25 25 27 28 28 27 26 26 28 25 26 26 26 26 26 26 26 26 24 23 23 24 23 21 21 21 21 25 22 24 25 25 27 28 29 29 29 29 27 28 29 28 35
26 24 22 20 18 22 24 25 24 23 23 22 22 21 22 22 21 21 20 20 20 20 19 20 21 20 21 23 24 24 25 26 27 27 26 26 26 26 25 22 23 28 33
23 21 21 21 23 24 24 23 23 22 21 21 21 21 21 21 22 19 17 17 17 17 16 17 19 21 22 23 24 24 23 24 25 26 27 27 26 25 25 25 25 26 30
20 21 23 23 22 22 23 24 24 23 23 23 22 23 22 21 20 20 19 17 17 17 18 19 20 21 22 22 22 20 22 22 24 25 26 26 27 27 28 28 30 30 29
20 20 22 22 22 21 22 23 23 22 22 23 23 22 22 21 20 19 19 18 17 16 17 18 20 21 21 18 18 20 21 22 23 25 27 27 27 28 29 30 32 33 34
21 22 22 21 21 20 19 19 19 19 19 18 21 21 21 20 18 17 16 15 15 17 18 18 18 18 18 18 18 19 20 22 23 25 26 27 28 29 30 29 32 35 36
21 22 21 20 20 21 20 19 18 18 15 14 15 16 16 17 15 14 14 15 16 16 15 15 15 16 17 18 19 19 20 21 22 24 25 27 28 29 29 29 29 33 33
20 21 20 19 20 19 20 20 17 14 14 13 13 13 14 14 15 15 16 16 16 13 13 14 15 16 17 18 19 20 21 22 23 24 25 25 27 28 29 29 28 30 33
17 18 17 16 17 17 18 16 17 15 12 11 11 12 14 13 13 11 9 9 9 11 12 14 15 16 17 19 20 22 23 23 24 24 24 24 25 26 27 27 28 29 32
18 19 20 21 20 18 15 11 7 5 8 9 8 7 9 11 10 11 12 13 13 14 15 14 16 19 20 21 22 23 24 25 23 23 23 23 22 24 26 27 27 28 30
23 22 20 18 15 11 9 9 9 8 9 9 9 9 10 10 11 12 13 15 15 14 15 17 18 19 20 21 23 24 24 23 22 23 22 22 21 22 23 24 27 25 27
13 11 9 8 8 7 6 7 8 8 7 6 6 7 9 11 13 15 16 16 16 16 16 17 18 19 21 22 24 24 23 22 22 23 22 21 21 22 23 24 26 27 26
7 7 5 4 5 4 4 4 3 4 5 5 6 8 10 12 14 15 16 17 17 17 18 18 20 21 23 24 25 25 23 22 21 21 21 22 22 23 23 24 26 25 25
7 7 5 4 2 1 0 1 2 4 5 6 8 10 12 13 14 14 15 15 17 18 20 21 23 24 26 26 26 25 24 23 21 21 21 22 23 23 24 25 25 25 24
6 5 4 3 2 3 4 4 5 6 7 7 8 9 11 13 14 15 16 18 19 21 23 25 25 26 26 26 24 23 24 22 21 21 22 24 23 23 24 26 26 25 25
6 5 5 5 5 6 6 6 6 6 7 9 11 12 14 15 17 18 19 20 21 22 23 25 25 26 26 25 23 22 21 21 22 21 22 23 23 23 25 26 25 25 26
8 7 7 7 7 6 6 7 8 9 10 11 13 14 15 17 19 19 19 21 22 23 22 23 24 25 25 24 22 20 20 20 20 20 20 21 22 23 24 25 25 26 24
8 8 8 7 7 7 8 9 10 11 12 14 15 16 17 16 17 19 21 23 24 25 25 24 23 22 22 22 21 20 20 19 18 18 19 20 21 23 23 25 24 25 24

GFSGL_850_spd_048.txt.gz
Wind_Speed
38 39 41 40 37 34 33 33 35 37 43 44 45 44 45 44 48 47 31 34 35 38 34 36 34 33 38 38 36 31 29 27 25 26 25 25 28 28 28 29 27 26 27
41 42 42 39 42 41 43 39 31 41 45 44 48 48 41 45 40 36 36 35 35 31 33 31 32 35 35 32 32 27 24 25 24 25 26 26 29 26 27 25 26 28 31
45 45 44 46 46 46 48 41 45 45 39 34 43 43 46 48 43 34 30 35 34 32 32 32 31 30 30 28 24 23 24 25 25 25 26 27 27 24 28 30 29 29 31
41 46 48 50 51 52 49 46 50 54 49 47 43 44 44 41 41 38 39 31 30 29 27 26 26 26 22 22 22 22 24 24 24 23 26 26 27 26 29 29 32 32 36
32 36 38 43 47 47 47 49 52 52 51 49 49 42 40 38 38 36 36 35 30 25 24 24 22 20 20 21 22 23 23 20 22 23 26 26 24 26 29 31 36 39 40
32 32 32 35 39 40 39 41 44 49 50 47 43 38 41 39 43 37 38 35 27 23 21 21 22 22 21 23 22 19 18 20 21 25 23 24 25 28 30 32 35 39 42
33 33 33 32 34 34 33 37 39 42 42 40 36 34 37 35 36 34 28 23 21 20 21 22 23 23 22 21 20 18 19 20 24 25 23 25 27 27 31 33 33 35 38
31 31 29 27 28 31 33 35 37 38 35 32 32 36 32 27 26 23 22 20 19 20 20 21 21 22 21 19 17 18 20 25 22 23 24 24 26 27 28 29 31 35 38
30 27 25 24 25 28 30 32 35 36 34 32 26 26 23 22 22 21 20 22 21 21 21 21 21 22 21 18 17 22 24 22 22 23 24 25 26 26 25 27 27 29 37
29 24 22 20 19 20 20 22 23 24 25 24 23 20 18 18 19 20 22 21 20 21 22 22 21 18 17 18 24 23 22 22 22 23 22 22 23 23 22 23 24 27 29
24 20 18 13 10 10 11 17 22 25 26 24 21 18 18 18 18 17 15 15 16 18 17 16 15 18 19 22 22 22 23 23 23 24 24 24 23 23 22 22 22 24 27
18 16 13 10 13 17 20 24 23 22 20 18 18 20 19 19 18 17 15 14 14 13 16 18 18 18 20 21 21 22 23 23 22 23 24 24 24 24 23 23 23 25 26
15 15 14 16 16 17 18 18 17 16 16 17 17 18 19 19 18 16 16 16 16 16 17 17 17 19 20 20 19 20 21 21 22 23 23 23 24 25 25 25 25 26 29
16 16 18 18 19 16 14 12 12 13 14 15 16 16 15 15 15 16 16 17 17 16 16 16 17 16 16 17 18 19 19 21 21 22 23 24 25 25 25 26 27 28 31
17 17 18 17 16 16 15 12 10 9 8 9 11 12 13 15 16 16 15 14 14 15 15 14 14 13 17 17 17 18 19 20 21 22 24 25 26 26 26 26 26 27 29
16 18 17 17 17 15 14 16 16 14 13 13 13 14 16 14 14 14 14 14 15 14 13 11 11 14 16 17 18 19 20 22 23 23 24 24 25 26 27 26 25 26 28
14 18 18 18 20 21 21 21 22 18 15 12 11 11 8 9 10 12 13 13 11 13 15 17 17 17 18 19 20 21 21 22 23 24 23 23 23 25 26 26 25 26 28
24 25 24 24 22 20 17 14 11 10 8 6 5 5 6 8 10 12 10 9 11 13 14 14 14 15 16 17 19 21 23 24 24 23 22 21 21 23 24 24 24 25 27
20 20 18 17 13 11 8 6 5 4 3 4 7 7 6 5 6 7 8 10 11 12 11 12 14 15 17 19 20 22 23 24 23 21 21 21 20 21 23 23 23 23 25
18 15 13 12 11 9 7 6 6 5 5 5 4 4 6 8 9 10 11 11 10 10 11 13 15 16 18 20 22 23 25 23 22 21 21 20 19 20 22 23 23 25 25
15 13 10 9 9 7 6 5 4 4 4 4 4 5 6 7 8 9 9 9 10 11 13 15 17 19 21 23 25 26 26 25 22 21 20 20 20 21 20 21 23 22 24
12 11 9 8 7 6 5 4 3 3 2 1 2 4 6 7 8 8 9 11 13 15 17 19 21 23 25 26 27 27 27 24 21 20 21 21 21 21 21 21 22 23 23
10 9 8 8 6 6 5 4 3 3 2 2 3 6 8 9 11 12 13 14 16 17 19 21 23 24 24 24 24 25 26 23 21 21 21 21 22 21 20 22 23 24 23
9 8 8 7 6 5 5 5 5 4 4 5 7 9 10 12 13 14 15 16 17 18 20 21 22 23 24 24 23 23 22 22 21 21 21 22 22 21 21 22 23 23 23
9 8 7 7 6 6 5 5 5 6 7 8 9 11 12 13 13 15 16 17 19 21 21 21 22 23 22 22 22 21 20 20 20 20 20 20 21 20 21 22 23 24 23
8 7 7 7 6 6 6 6 7 8 10 11 11 11 11 13 15 17 19 20 20 21 21 20 20 21 22 22 21 20 19 18 18 17 18 19 19 20 20 22 23 24 24

GFSGL_850_spd_051.txt.gz
Wind_Speed
35 35 37 38 39 40 39 38 38 39 40 39 37 40 41 43 43 42 43 44 40 39 49 48 39 34 36 37 35 36 37 33 34 29 24 21 21 23 23 25 27 27 28
38 39 39 39 39 39 39 41 42 44 39 33 41 40 40 42 41 43 46 45 39 39 36 29 32 32 32 34 32 34 34 33 30 25 21 21 23 22 23 23 24 25 28
42 42 42 42 40 41 42 41 41 37 36 42 34 39 36 40 46 46 42 43 37 31 36 31 34 33 33 31 32 30 29 27 23 22 21 22 20 21 22 25 25 25 24
38 41 44 44 44 45 44 42 42 40 40 40 41 38 36 30 34 37 40 39 36 32 33 31 30 29 28 26 25 26 24 22 20 20 20 19 20 22 25 25 23 25 26
30 33 34 38 42 44 46 45 45 44 44 45 44 45 44 43 46 47 42 33 37 35 36 34 30 24 22 21 21 21 21 21 21 20 19 19 21 23 22 22 25 25 27
27 27 30 31 33 36 37 40 41 43 46 48 49 47 49 50 46 41 33 31 32 34 33 32 28 24 22 21 22 22 22 22 21 19 19 20 22 21 23 24 25 24 19
28 29 30 30 28 28 31 33 33 35 35 39 43 43 41 36 35 29 33 36 35 34 33 28 25 21 21 22 22 22 21 20 19 17 19 21 20 22 23 24 24 24 23
31 31 31 29 27 27 29 28 29 30 31 31 29 29 29 28 24 28 29 30 27 24 24 23 21 21 21 21 22 22 20 18 17 18 18 20 20 21 23 24 25 26 26
32 34 34 31 28 27 26 26 24 22 23 28 29 31 30 27 29 29 26 25 24 23 21 20 20 21 22 24 21 18 15 16 17 17 19 20 21 22 22 24 22 22 24
34 34 33 29 27 22 20 18 19 21 25 26 26 28 28 24 22 20 20 21 21 20 20 21 23 22 21 19 15 13 14 16 16 17 17 18 19 19 21 21 23 24 22
32 29 27 25 23 18 14 17 18 20 23 25 25 23 21 19 19 16 15 15 16 18 21 22 20 17 13 12 13 14 15 16 16 17 17 18 18 19 20 22 22 23 24
25 23 21 19 16 15 15 17 18 19 22 22 23 23 20 17 16 14 13 12 15 15 15 12 11 11 12 13 15 15 16 16 15 17 17 18 20 20 21 22 23 26 27
21 22 19 19 16 14 17 20 18 19 20 20 17 15 16 17 16 17 17 15 14 11 10 9 9 12 14 16 16 14 15 15 16 18 19 20 21 21 23 26 27 27 28
20 21 20 18 17 17 16 16 16 16 15 13 15 16 16 16 15 15 14 13 11 10 9 9 11 12 12 13 12 15 17 18 18 19 19 20 22 25 25 25 27 27 28
21 22 20 19 19 20 19 16 13 13 9 9 10 10 11 12 13 11 11 10 10 9 9 8 9 11 13 14 15 16 17 18 18 19 22 24 24 24 25 25 24 24 25
20 21 21 20 19 17 16 18 16 13 12 9 9 11 14 11 11 11 10 9 9 7 8 8 9 12 14 17 19 20 20 21 21 22 22 23 23 23 24 23 22 21 22
22 23 21 20 21 21 19 17 18 17 14 11 9 9 7 7 5 4 5 7 7 9 13 15 14 14 14 15 15 17 17 19 21 22 23 23 22 21 22 21 20 19 20
19 19 17 16 18 19 19 18 16 14 14 13 9 4 0 3 4 6 8 11 10 11 10 10 11 11 12 14 16 17 19 21 22 23 23 22 21 21 20 19 18 19 19
20 21 22 22 20 19 16 14 12 10 9 7 5 2 1 1 1 3 5 7 7 8 8 9 11 12 14 15 18 20 21 23 24 24 24 22 20 19 19 18 18 19 21
24 21 20 18 15 13 11 10 9 8 8 7 5 3 2 3 4 6 7 7 6 7 8 9 12 14 16 18 20 22 22 23 21 19 19 18 18 16 17 17 17 19 19
19 17 15 14 13 12 11 10 9 9 8 7 5 2 2 3 4 5 6 6 7 9 10 13 15 17 20 21 22 22 24 25 24 23 21 18 16 16 16 17 18 18 19
16 15 14 13 12 11 10 9 8 7 6 5 3 0 2 4 4 6 7 9 11 13 15 17 18 20 21 23 24 25 26 25 24 22 19 17 15 16 17 17 18 18 18
14 13 12 12 11 10 9 8 7 5 4 2 1 3 5 6 7 8 9 10 12 13 15 16 17 18 19 20 21 22 23 23 22 20 18 17 18 17 16 18 17 18 18
11 10 10 10 9 8 8 7 6 4 3 3 4 5 6 7 8 9 10 11 13 14 16 17 18 19 19 19 18 19 20 21 20 19 19 20 20 18 17 18 18 19 20
10 10 9 9 8 8 7 6 5 5 4 4 5 5 6 7 8 10 11 13 14 15 16 17 18 18 18 18 19 19 19 20 19 19 19 19 18 17 18 19 19 20 20
10 10 10 10 10 9 8 7 6 6 5 5 6 6 7 8 10 11 13 14 15 16 16 16 17 18 19 19 19 18 18 17 16 16 17 16 15 16 17 19 20 21 21

GFSGL_850_spd_054.txt.gz
Wind_Speed
34 35 35 39 41 43 47 49 51 56 59 60 61 58 60 58 55 49 45 46 45 43 40 45 41 37 42 43 47 40 36 41 40 34 33 27 27 25 26 23 26 27 27
34 35 38 35 37 41 49 50 51 54 50 55 54 58 60 53 48 46 43 45 38 36 42 42 38 37 40 27 30 30 36 37 36 34 32 28 26 26 25 27 26 24 19
36 37 37 40 41 44 45 45 45 45 43 43 44 46 46 47 41 47 46 40 38 38 38 39 41 37 33 32 36 34 35 32 29 31 30 27 25 27 24 25 25 18 19
36 38 40 43 44 43 42 43 43 43 42 42 44 44 45 43 42 40 38 40 35 40 38 41 37 38 37 33 31 33 32 30 28 29 27 25 23 25 24 22 19 17 18
36 37 44 45 45 42 43 42 42 43 44 42 40 40 39 36 39 34 32 32 33 36 38 33 34 33 36 35 33 32 29 28 27 26 24 25 24 24 22 16 17 17 18
36 39 37 37 38 41 41 41 39 41 41 39 39 38 37 38 43 43 41 39 38 37 36 33 33 37 37 34 34 29 24 25 26 27 27 25 21 20 17 15 14 15 16
34 33 34 34 35 35 34 35 36 36 32 33 33 33 34 34 37 43 42 40 40 35 33 32 35 36 35 33 28 25 25 26 26 25 24 21 18 15 15 14 14 14 17
32 31 31 33 33 30 29 29 28 28 28 29 31 32 34 35 34 30 25 28 29 31 31 29 32 34 32 28 27 25 25 25 25 23 20 19 16 18 17 16 18 19 19
33 33 31 31 30 29 29 27 24 26 28 29 27 26 26 26 26 27 29 28 30 30 30 29 28 26 26 22 25 25 25 24 21 18 17 14 17 19 18 18 16 13 17
33 30 28 29 29 27 25 28 29 25 22 22 24 24 26 28 29 30 28 27 29 29 27 25 23 23 25 25 24 21 19 17 15 14 13 15 16 18 17 17 15 15 14
27 29 27 25 27 34 32 27 24 21 22 23 24 23 23 22 22 20 19 21 23 25 24 23 22 22 23 21 18 15 14 12 10 10 12 14 14 15 16 17 16 16 15
30 29 30 29 29 28 27 23 20 19 20 21 21 20 19 19 18 17 15 15 18 19 21 20 20 19 15 12 10 10 10 8 10 11 13 14 13 14 16 20 19 18 19
21 23 22 22 23 24 22 22 24 20 21 21 20 19 19 18 17 14 12 12 15 17 16 15 13 9 8 9 9 5 5 8 9 11 14 16 17 20 21 20 21 23 26
18 22 24 26 24 22 21 18 17 17 20 19 20 20 18 16 15 16 17 17 16 15 13 10 9 8 5 5 5 6 9 11 15 19 18 18 17 16 19 20 23 22 22
24 25 25 24 23 22 20 20 18 19 17 18 18 17 18 19 18 17 15 14 11 8 6 4 3 1 3 5 8 10 13 15 14 12 13 14 16 16 16 17 19 18 18
23 25 26 27 27 25 25 26 21 18 16 13 14 13 16 13 14 12 11 8 5 3 2 1 2 4 6 9 9 10 12 12 13 14 15 15 15 15 15 16 17 17 19
25 26 26 26 27 26 25 25 27 22 19 18 16 13 12 13 10 7 5 1 3 5 3 2 3 4 5 6 7 7 7 11 15 12 13 14 15 16 17 17 17 18 20
17 21 22 22 22 24 24 25 25 25 24 23 18 15 11 7 4 4 5 6 6 4 3 2 1 2 3 3 5 6 9 10 12 13 14 15 16 17 18 18 18 19 20
23 25 27 28 28 26 25 22 21 20 20 19 16 13 12 9 7 5 4 4 5 5 5 4 3 3 4 6 7 9 11 12 14 15 16 16 16 16 18 18 18 19 20
27 25 24 24 21 20 20 18 17 15 15 13 11 9 7 5 4 5 5 5 5 5 5 4 5 6 7 8 10 12 13 14 15 15 16 17 16 16 17 17 18 18 19
23 21 19 18 18 17 16 15 13 12 11 9 8 7 5 5 6 6 6 6 5 5 5 5 7 8 9 10 11 12 13 14 15 15 15 15 15 16 16 16 18 18 19
18 18 16 16 15 14 14 13 12 12 10 9 7 5 4 6 6 6 5 5 6 6 6 7 7 8 9 11 12 13 13 14 14 14 14 14 14 15 16 17 17 18 18
15 15 15 15 14 13 13 12 12 11 10 8 7 6 6 6 5 5 5 6 7 8 10 10 12 13 13 14 14 13 13 12 13 13 14 14 14 15 15 16 17 17 18
13 13 13 13 12 12 12 11 9 8 8 7 6 6 6 5 5 5 5 7 8 10 11 12 13 14 14 14 15 15 15 16 17 17 15 15 15 15 15 15 16 17 19
11 11 11 12 11 10 10 9 8 8 7 6 6 6 4 4 4 5 7 9 10 11 12 13 13 14 15 16 16 17 17 18 19 18 18 17 16 16 15 16 17 17 19
12 11 11 11 10 9 9 8 7 7 6 5 4 4 4 5 6 8 9 11 12 13 14 14 15 16 16 16 17 17 18 19 18 16 16 16 15 13 13 15 17 18 19

GFSGL_850_spd_057.txt.gz
Wind_Speed
30 31 32 41 41 41 42 48 44 42 47 47 45 48 49 49 47 43 46 47 44 44 44 40 39 38 39 40 40 35 34 37 41 39 36 34 37 38 37 34 36 35 31
33 33 34 33 37 43 46 47 48 44 44 43 47 44 45 47 46 46 45 45 45 45 44 43 45 46 43 44 39 35 28 33 30 37 38 39 41 34 33 32 33 31 30
33 36 39 41 41 43 45 48 48 49 47 46 44 44 48 46 44 46 46 46 45 45 45 45 44 46 44 44 42 42 37 36 37 40 42 40 35 33 33 32 31 30 28
33 36 39 44 45 46 46 47 48 49 48 49 48 48 49 48 47 48 46 46 46 46 48 48 46 43 43 43 44 44 40 36 37 40 39 35 32 31 31 32 30 29 27
36 37 43 46 46 41 42 43 46 45 48 46 46 48 48 47 49 47 45 46 47 51 47 44 46 42 42 39 44 40 37 37 37 38 36 36 31 32 29 28 28 25 23
36 43 43 39 40 43 43 45 43 44 44 44 44 44 45 46 47 46 45 42 45 42 40 40 41 38 40 44 44 37 37 39 37 37 36 36 29 28 27 24 23 21 18
37 41 39 41 41 44 44 40 43 44 41 43 44 44 44 42 42 43 43 43 40 40 43 44 44 43 42 39 41 41 38 35 30 30 31 30 27 23 23 21 20 19 19
33 36 37 39 42 40 40 42 42 42 42 41 40 39 38 38 39 39 38 38 38 41 47 47 44 39 37 37 37 35 31 29 28 24 24 26 22 21 19 17 15 18 21
32 35 36 38 39 38 39 42 41 39 37 36 33 33 35 36 38 38 37 39 40 41 43 43 38 34 32 31 32 29 27 24 24 22 22 18 15 14 11 12 16 15 18
31 35 35 32 35 37 37 35 35 33 34 38 35 36 35 34 35 34 34 36 39 39 38 35 32 29 30 28 26 27 25 22 18 17 14 12 11 9 10 15 16 18 16
26 27 29 32 33 33 30 29 38 42 40 36 36 34 31 30 31 30 30 27 27 31 29 25 21 20 21 24 23 20 15 12 10 8 7 8 10 9 10 13 14 17 18
23 21 28 31 33 36 41 42 37 36 35 34 32 28 22 22 23 17 14 17 18 20 19 17 17 17 18 15 12 10 9 7 5 5 6 6 8 9 8 12 17 19 18
22 25 30 33 31 32 32 33 33 32 30 29 25 22 18 16 14 15 11 9 10 15 17 18 18 16 12 12 8 5 5 3 5 7 9 11 13 15 18 19 18 17 19
17 20 23 25 26 25 25 27 29 28 26 25 24 21 19 17 16 18 18 17 18 20 20 18 15 9 5 2 2 4 5 7 8 10 12 14 15 14 14 15 18 20 23
15 18 22 23 23 25 25 22 22 22 21 21 22 22 23 21 19 18 17 18 17 14 12 8 5 3 4 4 5 7 8 8 7 9 11 12 13 14 14 15 15 16 18
14 17 22 27 24 25 29 29 21 20 20 20 21 18 22 21 18 15 14 11 8 8 8 7 6 4 3 2 2 2 5 5 9 10 10 11 12 13 14 15 16 17 18
17 24 28 33 30 31 34 37 40 33 30 27 23 22 21 20 17 15 13 9 7 6 7 7 6 4 3 2 1 2 3 7 11 9 11 11 13 15 16 17 17 18 20
24 28 30 31 30 31 27 34 31 29 30 30 25 22 19 16 13 14 13 8 8 8 7 7 5 4 4 2 1 4 7 9 8 10 12 13 14 15 17 17 18 19 19
27 32 31 31 30 30 26 29 28 28 28 27 21 18 16 14 12 12 11 9 9 9 7 5 3 3 3 4 6 7 9 9 11 11 12 13 14 15 16 17 17 19 20
27 28 27 26 26 25 23 24 23 21 21 20 19 15 11 8 10 10 10 9 8 7 7 6 5 4 4 5 7 8 8 9 10 11 12 13 13 14 15 16 16 18 18
23 23 22 22 23 21 20 20 19 17 18 17 16 13 10 9 10 9 9 9 8 7 6 5 4 5 6 6 6 7 8 8 9 10 12 12 13 14 14 15 16 17 19
17 17 18 19 19 18 17 17 18 16 16 15 13 12 12 10 9 8 8 8 7 5 5 5 5 5 5 5 6 7 8 9 10 10 11 12 13 13 14 15 16 17 18
15 16 17 17 16 15 15 16 15 15 14 12 10 9 8 8 7 7 6 6 6 6 7 6 5 6 6 9 9 9 9 10 11 12 13 13 13 14 14 15 16 17 18
15 15 15 14 13 13 13 13 12 13 11 11 10 9 8 8 7 7 6 6 5 5 7 8 8 10 10 11 11 12 12 13 15 16 16 14 14 13 13 15 15 16 18
14 14 13 13 12 11 11 10 11 11 10 9 9 7 7 6 5 5 5 6 7 7 9 10 10 11 12 13 14 13 14 15 17 18 18 16 14 15 14 14 15 17 19
12 12 12 10 10 10 9 9 9 9 8 7 7 6 5 4 4 5 6 8 9 11 11 11 12 13 14 13 13 14 16 17 17 16 15 15 15 12 11 13 16 17 18

GFSGL_850_spd_060.txt.gz
Wind_Speed
32 29 38 43 41 41 40 44 43 42 50 51 56 60 53 47 45 45 46 46 46 46 46 46 44 45 43 42 40 42 44 43 48 48 39 37 32 32 32 31 30 32 38
33 32 30 35 43 45 45 43 42 42 42 45 53 56 56 61 59 54 53 52 49 48 47 44 45 43 41 43 44 45 48 51 49 49 42 43 35 32 34 35 37 37 34
33 36 37 34 36 42 44 49 47 47 46 47 49 50 53 56 59 59 56 52 50 49 49 48 48 47 46 48 48 50 51 50 47 47 46 46 42 37 37 37 35 35 34
34 36 39 42 40 39 40 43 46 47 48 51 51 49 51 52 48 50 50 51 51 52 52 52 51 48 49 51 50 50 52 48 50 49 51 51 47 42 37 36 35 36 35
34 37 43 43 43 41 41 44 45 47 50 50 51 52 52 49 53 55 53 51 50 51 52 51 50 49 51 51 52 52 52 50 45 51 52 48 45 43 41 39 37 31 30
35 38 41 40 41 45 45 44 43 46 48 50 52 53 53 55 58 56 53 49 49 49 49 47 48 51 54 49 47 44 47 47 49 52 52 48 46 45 39 33 27 28 28
31 37 40 40 41 44 46 45 47 49 47 51 54 51 53 54 54 53 52 50 49 46 44 45 47 52 50 44 43 46 47 49 55 46 41 44 39 33 23 25 23 25 25
26 33 37 40 43 45 44 46 49 50 49 48 48 49 50 51 48 48 47 45 46 47 45 41 40 43 43 42 46 45 50 51 48 41 34 30 28 27 23 23 22 22 20
22 26 31 39 42 43 44 47 47 44 45 47 46 44 44 45 45 44 40 39 40 42 45 46 48 46 47 49 50 46 39 35 28 22 19 21 21 19 19 18 16 13 13
24 26 22 29 41 43 44 45 43 41 40 38 43 44 43 43 43 41 41 41 40 42 44 48 49 47 44 40 35 33 33 24 22 18 12 12 8 10 9 8 9 8 12
25 27 29 27 27 39 39 39 39 39 42 45 46 45 44 42 39 38 36 38 40 40 38 36 34 34 27 20 17 18 18 15 11 8 10 5 2 7 9 9 7 12 14
30 28 27 26 25 29 33 38 39 41 43 43 41 38 36 38 34 35 36 35 34 31 27 23 16 12 12 14 15 16 13 9 7 2 4 4 4 2 5 11 15 16 17
29 25 28 28 25 23 30 37 40 39 37 36 35 35 31 20 22 22 20 19 16 19 17 18 18 17 18 18 13 10 7 5 4 4 4 3 5 8 12 16 17 17 18
24 21 19 15 17 21 20 23 26 28 31 33 31 28 24 20 19 20 18 22 24 25 27 25 21 17 14 11 9 8 6 5 4 4 4 6 8 10 12 14 16 18 20
17 12 9 4 1 6 11 13 19 20 23 28 26 25 24 22 19 22 21 21 24 22 23 20 17 12 10 9 7 7 7 6 6 6 7 8 9 10 11 13 14 15 18
12 8 11 15 21 25 25 27 22 19 18 18 21 23 29 33 23 28 27 21 20 17 15 17 16 12 10 8 7 6 6 7 7 7 7 9 10 11 13 14 13 14 17
20 18 18 23 28 30 34 41 46 40 39 40 28 34 29 31 27 21 22 20 16 13 15 15 13 10 8 6 4 3 4 6 8 8 9 11 11 12 12 12 14 14 17
26 23 25 28 29 29 28 31 33 38 39 34 31 28 27 28 22 21 16 15 16 15 15 13 11 8 6 4 3 3 5 6 7 9 8 9 11 12 13 13 13 15 18
28 27 25 28 28 28 30 30 31 32 33 27 24 25 21 23 18 16 13 14 16 16 14 11 8 7 6 3 4 4 5 6 7 7 8 9 11 9 10 12 13 14 16
25 25 24 22 22 22 23 20 23 27 25 22 20 17 16 14 16 15 15 16 15 15 12 8 6 4 3 2 0 2 3 4 6 6 8 8 9 9 10 11 13 15 16
19 20 19 20 22 20 19 20 21 21 20 20 20 17 14 14 13 12 13 13 11 9 7 6 3 2 0 1 1 2 3 4 5 6 7 10 11 8 9 11 13 14 16
17 17 17 18 18 19 19 19 19 18 18 16 16 14 12 12 12 12 12 10 7 6 4 4 2 0 2 3 3 3 3 4 6 9 10 11 10 8 10 12 13 14 14
13 14 15 16 15 15 16 17 15 14 13 11 11 11 11 11 9 8 8 7 7 5 5 4 4 3 5 5 5 5 5 7 10 12 13 13 12 10 12 11 12 14 13
13 14 15 14 13 15 14 14 13 13 12 12 13 12 12 10 10 9 7 6 5 4 6 7 7 7 8 8 8 8 10 10 11 13 15 15 15 13 12 12 11 9 14
13 14 14 14 14 14 13 13 12 11 10 9 8 7 6 5 4 5 6 6 7 8 7 6 7 8 10 10 10 10 9 11 13 14 15 14 14 13 11 8 9 13 16
13 12 12 12 11 10 10 9 9 8 7 6 4 5 5 4 4 3 7 7 7 7 7 7 9 10 10 10 11 11 13 14 14 14 13 12 12 11 9 9 12 13 14

GFSGL_850_spd_066.txt.gz
Wind_Speed
19 23 26 32 33 34 38 39 39 40 46 48 47 45 45 46 47 48 46 45 47 45 47 47 45 46 46 44 44 45 46 46 48 49 49 48 48 49 48 47 44 44 45
18 20 24 25 32 36 37 38 38 39 42 48 49 50 50 50 50 52 52 53 53 52 50 49 51 50 50 48 49 50 50 50 52 55 53 53 55 53 50 48 47 48 46
24 23 23 26 28 32 35 39 39 40 42 44 48 55 55 54 54 55 57 57 57 58 57 56 57 54 56 55 54 54 54 54 55 56 58 56 56 55 53 51 51 50 51
28 28 30 29 29 30 30 32 36 39 42 45 47 51 53 55 58 62 61 62 64 66 66 66 64 63 63 59 58 56 56 56 56 57 57 54 49 51 52 52 52 51 47
15 27 31 32 32 33 34 35 35 36 39 42 45 47 48 53 55 57 59 62 66 64 66 66 67 67 67 63 59 61 59 57 57 56 50 49 47 51 53 54 55 52 53
5 4 14 26 30 36 38 39 39 40 42 41 44 48 50 51 53 54 56 58 58 60 61 63 62 63 66 67 64 57 55 54 56 54 51 49 51 54 55 56 56 53 54
7 7 4 8 12 24 34 34 42 46 46 47 46 45 48 52 52 54 53 53 55 57 58 58 58 60 59 58 55 52 52 53 56 58 58 57 55 52 54 56 55 56 53
15 12 11 13 13 15 14 24 38 42 43 50 51 50 51 50 48 51 53 54 55 58 58 57 57 57 56 54 52 52 54 58 59 60 61 68 65 65 55 53 47 43 35
21 21 20 18 17 19 21 22 22 31 39 52 52 54 54 54 51 49 49 52 56 57 56 58 60 59 57 55 54 53 54 56 59 58 57 57 57 54 53 39 27 24 23
19 21 23 25 25 24 23 24 28 31 33 43 48 51 53 55 53 52 49 49 55 59 60 63 62 64 61 59 58 58 59 56 54 49 42 37 31 22 15 15 18 20 20
20 20 21 23 25 25 26 27 27 28 33 35 39 48 50 52 54 55 52 52 53 59 58 59 63 65 64 61 60 55 55 48 33 23 20 18 16 13 11 12 11 11 11
23 21 20 20 22 23 25 25 24 26 25 24 30 39 43 45 48 52 53 53 49 51 53 53 43 38 30 27 31 37 33 32 26 23 20 15 13 12 9 6 3 2 4
20 21 23 23 24 21 20 19 19 18 16 15 16 20 18 14 22 26 28 39 45 38 33 16 22 25 24 24 27 28 18 25 23 19 18 14 7 6 3 3 2 3 5
20 20 21 23 25 24 23 23 19 15 12 8 4 3 2 2 3 1 3 9 18 21 24 22 22 27 24 31 25 20 19 12 12 14 12 10 7 3 1 2 3 5 5
20 20 21 21 24 29 29 33 31 25 17 14 14 13 13 15 13 13 18 23 27 30 31 29 27 29 29 21 25 21 17 15 13 9 6 3 3 2 3 4 5 7 6
19 20 20 20 21 24 29 32 34 34 34 32 30 29 28 25 24 26 26 25 28 25 26 27 24 22 21 16 14 15 11 11 9 6 2 2 1 1 1 3 5 6 5
19 18 18 19 21 23 25 27 30 28 28 29 28 27 24 21 18 17 16 18 15 16 24 19 22 16 18 14 11 12 10 9 6 5 2 3 4 3 3 3 4 4 6
16 15 16 18 19 19 21 22 23 22 22 22 21 20 18 16 15 13 12 11 14 19 18 16 18 15 12 11 9 8 7 7 6 4 4 5 5 4 3 5 7 8 8
14 14 14 14 14 14 14 15 17 17 17 16 14 15 13 9 9 10 8 13 16 16 15 13 12 11 9 9 9 8 7 5 5 6 6 6 5 5 5 6 6 8 8
10 8 8 8 9 9 10 12 13 13 12 12 12 13 10 6 10 13 13 12 11 11 11 10 10 9 8 7 7 7 5 3 4 5 4 4 5 5 5 6 7 8 10
7 7 6 7 8 8 8 10 10 10 11 12 13 12 10 8 10 11 10 10 10 11 10 9 7 6 6 6 6 4 3 3 3 4 3 3 4 5 5 7 8 9 9
3 4 4 5 6 7 8 8 7 8 8 9 10 10 9 8 10 10 9 8 8 7 7 7 6 5 5 4 3 3 3 3 3 3 4 4 5 5 6 7 7 6 6
2 3 3 4 5 5 5 7 7 7 8 8 8 8 8 9 9 7 7 7 6 5 5 5 4 4 4 4 3 3 4 3 3 4 4 4 5 5 5 5 6 5 6
2 2 3 4 4 4 5 6 7 7 7 6 7 7 7 8 8 7 6 5 5 4 4 3 3 3 3 3 4 3 3 3 5 6 6 6 6 7 7 7 6 6 7
3 3 4 4 4 5 4 4 4 4 4 5 6 6 7 6 6 6 5 4 4 4 5 4 4 4 5 4 4 4 5 6 7 7 8 7 6 6 6 6 7 7 8
2 2 3 3 3 2 2 2 2 4 5 5 6 7 8 9 9 7 7 7 7 8 9 9 9 7 7 7 6 7 8 8 8 8 8 7 7 7 8 8 9 8 7

GFSGL_850_spd_069.txt.gz
Wind_Speed
19 19 20 22 24 24 24 25 29 32 37 42 39 40 38 38 38 39 39 41 43 45 48 48 45 48 47 47 45 44 45 46 50 50 50 49 48 46 45 46 47 49 49
16 18 19 20 22 25 27 28 31 37 35 35 37 40 43 46 45 47 48 48 49 51 51 51 51 49 50 50 48 48 49 49 50 53 53 53 53 52 51 53 51 50 51
18 19 19 19 22 23 26 29 32 36 40 40 40 42 46 46 48 50 52 53 54 53 52 52 54 53 54 53 54 54 54 54 55 55 57 58 57 56 56 55 54 54 52
15 17 19 19 20 22 24 27 28 30 35 38 40 41 44 47 50 52 54 55 56 58 58 59 60 59 61 60 60 60 59 59 59 60 60 60 58 56 57 54 53 50 51
6 9 16 17 20 23 26 27 30 32 32 34 37 41 44 48 51 53 56 60 62 62 62 64 64 65 66 66 65 65 63 63 62 59 53 49 50 46 51 51 51 49 50
7 4 3 11 18 21 23 25 29 33 37 37 38 39 42 45 49 53 56 60 61 62 63 63 64 65 65 67 67 64 63 57 58 55 53 50 50 50 49 52 51 52 52
5 2 2 5 9 12 16 24 26 31 31 36 39 42 45 46 47 48 48 52 55 58 61 62 62 62 62 62 61 61 60 59 58 59 59 56 56 54 53 49 54 54 55
8 8 7 6 7 10 13 16 19 25 29 31 37 42 45 48 48 50 52 50 49 53 55 59 61 61 61 59 57 57 55 54 55 56 59 62 62 61 60 58 53 50 52
13 13 13 12 12 12 12 12 16 21 25 28 31 36 35 46 50 53 52 53 54 55 54 52 54 57 58 56 55 56 55 54 57 58 60 62 64 67 68 69 65 51 39
13 14 16 18 18 17 15 15 16 17 21 24 25 30 35 40 46 53 53 51 54 56 55 56 59 61 61 61 60 60 62 61 62 62 59 59 57 49 41 37 30 29 28
13 13 14 15 16 18 19 19 17 16 17 20 22 22 24 31 37 47 51 52 52 51 52 54 58 63 64 63 63 55 55 58 52 46 29 17 17 18 14 11 14 13 10
10 11 12 14 14 15 15 15 16 15 14 14 15 17 18 21 26 30 37 44 46 42 36 34 37 42 56 60 52 38 33 29 27 20 18 16 17 15 14 13 9 8 8
12 13 15 16 16 17 16 16 14 13 14 15 15 15 16 17 19 21 21 16 16 18 15 18 13 4 7 5 14 18 19 20 19 20 17 15 13 10 8 6 3 4 3
15 16 18 20 22 23 24 25 22 20 17 16 18 20 19 19 19 17 13 10 6 8 13 9 12 14 20 25 24 20 24 21 15 16 14 13 7 8 5 6 5 5 3
15 16 18 20 23 26 26 28 28 26 22 21 22 22 24 25 20 13 13 15 18 23 22 25 24 26 26 25 22 20 20 17 15 12 10 10 6 4 4 5 4 4 4
16 17 18 19 21 22 24 25 25 24 24 25 23 23 24 20 17 17 17 17 16 17 18 24 22 24 20 21 18 17 17 14 12 10 7 5 4 4 6 6 6 6 5
17 18 17 18 18 19 20 20 21 20 19 20 20 19 18 17 15 14 13 11 12 10 17 20 19 19 19 17 15 12 13 10 9 7 6 6 7 6 5 6 6 5 6
15 15 15 15 15 15 15 15 14 14 14 15 15 15 15 14 13 12 11 7 10 14 17 17 16 14 13 12 11 12 12 12 9 9 8 8 7 7 6 7 8 7 7
10 11 10 10 10 10 10 10 10 10 12 13 11 11 13 11 9 9 8 10 12 11 11 10 10 10 11 11 11 10 10 10 8 9 9 8 8 7 7 7 8 8 8
10 9 8 7 7 7 8 8 8 9 9 10 10 12 11 7 6 9 11 11 11 11 11 10 10 9 9 10 10 10 9 8 7 8 7 7 7 7 7 7 7 8 8
8 6 6 5 6 6 6 7 9 9 10 11 12 12 11 10 11 11 11 11 11 11 10 9 9 8 8 8 8 7 6 6 6 7 7 6 6 6 7 7 9 9 9
6 6 5 5 6 6 6 7 8 9 10 10 11 11 11 9 10 10 10 10 9 8 7 7 7 6 6 6 6 6 6 6 6 6 7 7 7 7 8 8 9 10 9
6 6 5 5 5 6 6 7 8 9 10 10 10 9 9 10 10 9 9 9 8 8 8 8 8 7 7 7 7 7 8 7 6 7 8 9 9 8 8 8 8 8 8
6 5 5 5 5 5 6 6 7 7 8 8 8 9 10 10 9 9 8 8 8 8 8 8 9 9 9 8 8 8 7 6 8 8 8 8 8 8 7 7 7 8 9
6 5 5 5 5 5 6 6 6 6 7 7 8 8 8 9 9 8 7 7 8 8 8 7 7 7 7 6 6 7 7 8 9 9 9 8 8 8 8 8 8 9 10
5 5 5 5 5 5 5 6 6 6 7 8 8 8 8 8 8 8 8 8 8 8 8 7 7 7 7 8 8 9 9 9 9 9 10 9 9 8 8 8 8 9 10

GFSGL_850_spd_072.txt.gz
Wind_Speed
10 10 10 10 12 13 16 14 14 15 18 22 23 28 29 31 32 34 35 38 41 44 43 41 45 40 38 44 50 51 48 45 47 49 48 47 47 47 46 46 45 46 45
9 8 9 8 10 11 15 15 15 15 16 21 26 28 29 30 30 32 33 35 38 38 38 41 47 46 47 48 52 52 52 51 51 53 52 50 51 52 52 52 51 51 53
11 11 10 10 8 10 9 13 17 18 19 22 24 29 31 31 33 37 39 39 41 43 44 47 49 49 51 52 54 56 54 55 56 56 56 56 57 57 58 57 58 58 57
9 10 12 12 11 11 12 13 14 15 20 25 28 32 34 36 39 41 43 44 46 49 49 50 52 53 56 57 58 59 60 59 59 56 56 59 61 61 59 61 65 66 62
13 16 15 16 13 13 13 14 17 20 22 24 26 29 33 36 40 42 43 46 51 52 53 56 58 59 61 61 61 62 62 63 62 57 52 52 53 54 60 63 60 57 55
9 8 9 10 14 15 16 19 19 20 19 22 27 31 33 34 36 36 38 44 48 50 54 57 61 63 65 66 65 65 65 58 57 57 57 53 54 55 52 51 52 51 51
6 6 7 6 7 9 13 16 18 21 24 27 28 31 35 35 36 36 36 41 44 45 47 50 55 61 64 65 65 64 63 63 65 65 60 58 59 56 51 52 52 56 54
9 7 6 3 2 7 11 13 15 17 20 22 26 28 28 29 33 36 41 43 46 48 50 50 53 52 54 56 58 59 59 58 58 58 62 67 63 58 50 48 49 49 51
10 10 10 8 6 4 3 5 8 11 15 18 21 24 26 30 37 38 40 38 43 48 49 51 56 59 58 56 56 56 57 54 58 58 57 61 68 69 68 69 64 52 44
13 13 12 9 8 8 9 9 7 7 8 9 11 15 19 22 28 34 38 39 38 38 34 39 47 52 55 56 59 58 59 53 56 59 56 51 49 39 53 52 47 41 34
13 14 13 13 12 12 10 8 8 8 8 9 9 10 12 15 19 24 26 26 26 27 29 33 33 44 49 50 55 55 49 44 43 41 29 11 8 7 14 11 6 9 9
12 13 14 14 14 14 13 12 12 11 9 10 10 12 15 17 20 23 22 17 12 11 11 11 13 18 22 27 24 24 26 26 21 12 11 15 14 16 14 13 11 10 9
10 12 15 16 17 18 17 16 17 18 18 18 17 17 17 18 19 22 20 16 9 6 4 5 9 11 9 5 6 9 13 15 16 17 18 18 15 15 12 10 10 10 9
12 14 14 16 18 19 20 21 21 23 23 23 24 25 25 26 26 23 20 18 16 14 12 12 14 19 21 21 19 20 20 18 17 16 18 19 13 11 12 10 8 7 8
14 16 17 18 19 20 23 24 25 25 23 24 25 24 24 26 25 22 20 20 19 18 17 18 20 21 22 22 22 21 20 17 17 17 15 11 10 11 10 10 8 7 7
15 16 16 16 17 17 18 18 19 18 17 19 20 20 19 18 15 16 15 14 13 12 12 18 19 19 19 18 17 16 15 13 13 12 11 9 10 9 9 9 8 8 8
14 14 13 12 12 12 12 12 13 13 12 13 13 13 13 12 11 11 11 9 10 8 14 17 17 17 16 13 12 12 13 13 10 9 9 10 9 9 10 10 10 9 10
12 11 10 9 9 8 8 8 8 8 9 11 11 11 11 10 9 9 9 6 9 11 12 12 12 12 12 12 12 12 11 10 10 10 10 10 10 11 9 9 9 10 9
8 7 7 6 6 6 6 6 7 8 9 10 8 8 11 11 8 6 5 6 11 12 13 12 12 11 11 11 11 10 10 10 10 9 10 9 9 8 9 10 10 10 10
6 6 5 4 5 5 5 6 7 8 8 8 8 10 10 6 5 9 11 11 12 12 12 11 11 10 9 9 9 9 9 8 8 9 9 9 8 8 9 9 9 9 9
5 4 4 4 3 5 5 6 7 8 9 10 11 11 11 10 11 11 11 11 11 11 11 10 10 9 8 8 8 8 8 9 9 9 8 8 8 8 9 9 9 9 9
4 4 3 4 5 6 7 7 8 9 10 11 12 11 11 10 10 10 10 10 10 10 9 9 8 8 7 7 7 8 8 9 8 9 9 9 10 10 9 9 9 9 9
5 5 5 5 5 6 6 7 8 9 9 10 10 9 9 10 10 9 9 8 8 8 8 8 8 8 8 8 8 8 8 8 8 9 10 11 10 10 10 10 10 10 10
5 5 4 4 4 5 5 6 7 8 8 9 8 8 8 9 9 9 9 8 8 8 9 9 9 10 10 10 10 11 11 10 11 12 12 11 11 10 10 10 9 9 10
5 5 5 4 4 5 5 6 7 7 7 8 9 9 9 10 10 10 10 10 10 10 10 10 10 9 9 10 10 11 11 12 12 12 12 11 11 10 9 9 9 9 10
5 5 5 5 5 6 6 7 7 7 8 8 9 9 10 10 11 10 10 10 10 10 10 10 9 10 10 10 11 11 11 11 11 11 11 11 10 10 9 9 9 9 10

GFSGL_850_spd_075.txt.gz
Wind_Speed
12 11 10 10 11 11 11 11 9 8 12 14 17 19 22 28 32 28 30 32 43 48 47 45 49 48 43 48 48 43 43 42 46 46 45 46 50 47 42 40 40 41 45
12 10 10 9 9 9 10 10 11 11 11 13 16 15 17 22 28 27 26 27 30 40 40 43 45 43 47 46 45 55 47 45 49 53 51 51 45 54 53 51 49 48 49
9 7 7 7 6 7 7 7 9 10 10 11 15 16 17 20 23 22 25 27 26 28 33 36 39 41 42 43 42 43 47 52 49 53 60 53 48 45 49 58 58 57 58
9 7 7 7 5 4 6 7 7 8 10 12 14 16 18 20 23 25 26 28 30 33 35 38 40 42 43 42 45 50 52 53 52 48 52 60 55 50 45 48 49 48 53
12 10 10 10 10 9 8 9 9 10 11 12 14 16 19 23 26 29 32 36 38 38 39 41 44 46 47 48 48 51 53 49 48 46 47 47 49 47 47 47 47 52 54
10 9 7 7 9 12 12 12 12 12 13 15 17 20 22 26 32 33 35 37 36 35 38 41 44 47 49 50 51 52 52 48 47 47 50 50 50 50 51 49 51 49 51
6 0 4 5 6 8 10 12 13 15 16 17 19 20 22 26 30 30 32 33 34 37 39 40 43 44 44 44 44 45 48 51 56 60 60 56 54 54 52 52 53 54 59
5 6 4 4 5 6 7 9 9 10 13 15 17 19 20 23 27 29 31 31 32 34 38 42 45 46 46 47 50 52 53 52 52 52 56 61 63 63 59 56 53 53 56
10 8 6 5 4 3 3 3 5 7 10 12 14 16 17 20 26 29 32 31 30 30 32 33 40 44 47 50 51 49 50 47 52 55 56 55 59 64 65 66 64 56 39
12 11 9 9 7 6 5 4 5 3 3 2 2 4 6 11 13 16 17 16 17 19 22 28 34 37 40 42 45 48 45 41 42 45 47 45 44 45 37 33 37 37 29
12 11 11 10 10 9 9 9 8 8 8 7 8 8 9 11 12 11 7 5 6 8 10 13 17 22 26 31 36 38 35 30 26 24 25 21 14 10 14 12 7 10 14
14 14 15 15 15 13 12 11 10 10 9 11 12 12 15 17 21 22 20 16 12 9 8 11 14 19 18 14 11 10 10 9 8 6 5 5 6 9 10 10 12 10 7
14 18 18 18 20 19 19 19 18 17 18 19 19 21 22 22 22 23 23 22 20 17 17 17 17 18 17 16 16 12 9 12 13 14 15 14 15 15 13 14 15 13 11
16 19 21 22 23 23 23 23 23 24 24 23 23 23 24 24 24 22 22 21 21 21 19 17 18 18 19 19 18 19 18 16 15 16 16 14 12 9 9 10 10 10 9
17 19 20 21 21 22 22 22 22 22 19 20 20 18 18 20 18 16 15 16 16 15 15 14 15 16 17 18 17 16 15 14 13 12 9 8 7 9 11 10 9 7 6
15 17 18 18 18 17 17 17 17 16 14 14 14 14 14 13 10 11 11 11 10 8 6 9 12 13 13 12 11 11 10 9 9 10 10 10 9 8 8 8 8 8 8
12 14 14 13 13 12 12 11 11 11 10 9 8 8 8 8 8 8 8 6 5 5 6 9 10 10 10 11 10 10 11 12 10 9 8 8 8 8 8 9 9 9 9
11 11 11 10 9 9 8 8 7 6 6 6 6 6 5 5 5 5 4 4 4 5 6 7 8 9 10 10 10 11 11 10 10 10 10 9 9 9 8 9 9 9 9
7 8 8 8 7 6 6 5 4 4 4 4 5 4 4 5 4 3 3 2 4 6 8 8 8 9 9 9 9 10 10 10 10 10 9 9 8 8 8 8 8 8 8
7 8 7 6 5 4 4 3 3 4 4 4 4 6 7 6 3 4 6 7 8 8 8 8 8 8 8 8 9 9 9 9 9 9 9 9 9 9 8 8 8 8 8
6 5 5 4 3 3 4 4 4 5 5 5 6 7 7 4 5 7 7 8 8 8 7 7 7 6 6 7 7 7 8 8 8 9 9 9 9 8 8 8 8 8 8
5 4 3 3 4 4 3 4 4 4 5 5 6 6 6 5 6 6 6 6 6 6 6 6 6 6 6 6 7 8 8 8 8 8 8 8 8 8 8 8 8 8 8
4 3 3 3 2 3 3 3 3 3 4 4 4 4 4 5 5 5 4 5 5 5 5 5 6 6 6 7 8 8 8 8 9 9 10 9 9 9 8 8 8 8 9
3 2 2 2 2 2 2 2 2 2 3 3 3 4 4 4 5 4 4 5 5 5 6 6 6 7 8 8 8 9 9 9 10 10 10 10 9 9 9 8 8 9 9
2 1 1 1 1 1 2 2 2 3 4 5 5 5 6 6 6 7 7 7 6 7 7 7 7 8 9 9 10 10 11 11 11 11 10 10 9 9 8 8 8 8 9
2 1 1 2 2 2 3 4 4 5 6 6 7 7 7 8 8 8 8 8 8 8 8 8 9 9 9 10 10 10 11 10 11 10 10 10 9 9 8 8 8 8 9

GFSGL_850_spd_078.txt.gz
Wind_Speed
21 20 17 15 16 18 15 14 15 14 14 14 17 20 22 21 28 28 34 36 39 42 39 36 37 38 44 44 43 38 37 38 41 36 42 34 39 32 35 42 46 48 46
21 21 19 17 15 13 14 14 13 12 12 15 16 19 20 20 23 29 31 32 29 32 45 44 45 45 45 45 46 47 48 48 49 55 50 50 49 46 50 44 42 43 45
17 19 17 15 14 14 14 13 12 10 10 12 16 17 16 16 19 22 27 27 25 26 24 32 50 48 47 51 49 49 52 50 53 54 57 48 44 42 40 43 45 47 44
17 19 18 14 10 9 8 9 10 11 10 8 9 12 12 12 14 16 21 23 23 23 25 26 28 39 41 40 40 42 43 40 39 38 41 40 41 47 44 45 47 45 46
17 17 15 13 12 10 10 12 11 10 10 9 9 10 9 15 21 21 22 23 23 25 27 29 32 33 33 34 33 35 34 35 36 38 41 44 43 42 43 43 44 47 47
16 15 13 12 10 10 10 10 11 12 12 14 15 16 19 22 23 24 25 27 29 30 31 31 31 31 34 36 38 39 43 45 43 43 43 43 47 52 48 45 45 43 47
15 14 12 10 8 7 9 10 11 12 12 12 13 14 17 21 22 23 24 26 27 30 35 35 34 35 37 39 41 43 41 41 43 51 52 46 43 41 43 47 48 47 49
13 10 9 11 5 4 5 6 8 9 8 9 10 11 12 14 18 21 23 22 20 22 25 28 31 37 40 41 40 40 39 43 48 48 54 62 66 67 66 61 55 54 54
15 13 11 7 2 3 5 6 8 10 9 8 7 7 10 13 17 21 22 18 21 22 24 25 27 29 31 35 35 36 37 38 39 39 41 47 49 52 55 54 50 48 48
12 10 7 3 6 6 5 6 6 6 6 5 3 3 4 7 7 7 6 8 11 13 15 15 16 19 24 27 27 25 27 29 31 31 29 30 29 29 27 27 26 24 21
9 9 9 9 9 9 8 9 9 10 10 9 7 7 9 9 9 4 3 3 2 3 5 8 11 14 15 14 14 13 12 12 12 13 13 13 12 11 11 11 8 7 9
12 13 14 14 13 12 11 11 12 13 14 15 15 16 17 20 20 21 19 16 13 10 12 14 15 15 16 15 14 16 12 8 7 7 7 8 10 12 13 14 13 13 9
13 15 16 16 16 15 15 13 15 16 17 17 17 18 20 19 20 22 23 21 21 20 20 19 17 16 16 18 17 14 12 12 11 9 10 10 9 9 8 8 8 8 6
15 17 17 17 17 18 17 17 18 18 17 17 17 18 17 16 16 16 16 15 15 16 15 13 13 13 14 13 12 12 13 12 11 11 10 9 9 9 9 8 8 8 7
15 15 15 17 20 20 20 20 20 19 17 16 16 14 12 14 14 12 12 12 12 10 8 8 8 9 9 10 10 10 9 9 9 9 8 8 8 9 10 10 9 8 7
14 14 14 13 12 12 14 16 16 15 12 12 12 12 12 11 9 8 9 8 6 6 5 7 9 10 11 10 10 10 10 10 10 10 10 10 9 10 10 10 9 9 9
13 13 13 12 11 10 10 8 9 11 11 10 10 10 9 8 7 7 7 6 5 6 7 9 9 10 10 9 10 10 10 10 10 10 9 9 9 9 10 9 9 8 8
10 10 9 9 9 8 8 7 7 6 6 8 8 9 8 7 6 6 6 7 7 6 7 8 9 9 9 9 9 9 9 9 9 9 8 9 9 9 8 9 9 8 8
7 6 6 6 6 5 5 5 5 5 6 6 7 7 7 6 5 5 4 4 6 7 8 8 8 7 8 8 8 9 9 9 8 8 8 8 8 8 8 8 8 11 9
6 6 5 5 5 5 5 5 5 5 5 5 4 4 5 5 4 5 5 6 6 6 7 6 6 6 6 7 8 8 8 8 8 7 8 8 8 7 8 8 8 8 8
4 3 3 3 3 4 4 4 4 4 4 4 4 4 4 5 6 6 5 5 4 4 4 5 5 5 6 6 6 6 7 7 7 7 7 8 8 7 7 7 7 7 8
3 3 3 3 3 3 3 3 3 3 3 3 4 4 4 4 4 4 4 4 4 3 4 4 4 5 5 5 5 6 6 6 6 7 7 7 7 7 7 7 7 7 8
2 2 2 2 2 2 2 2 3 3 2 2 2 3 3 3 3 3 4 4 4 5 4 4 5 5 5 6 6 6 6 6 7 7 7 7 7 7 7 7 7 7 8
1 2 1 1 1 2 2 2 1 1 1 2 3 3 4 4 4 5 6 6 6 6 6 6 6 6 6 6 6 6 6 7 7 7 7 7 7 7 7 7 7 8 8
1 0 0 0 0 1 1 1 1 2 3 3 4 4 5 5 6 7 7 8 7 7 7 7 7 7 8 7 7 7 7 7 8 8 8 8 8 8 8 7 8 7 9
1 1 1 2 1 1 1 2 3 4 5 6 7 7 7 7 8 8 8 8 8 8 8 8 8 8 8 8 8 8 8 8 8 8 8 8 8 8 8 8 8 7 8